Time,TemperatureF,DewpointF,PressureIn,WindDirection,WindDirectionDegrees,WindSpeedMPH,WindSpeedGustMPH,Humidity,HourlyPrecipIn,Conditions,Clouds,dailyrainin,SoftwareType,DateUTC
2013-03-06 00:00:00,32.5,26.8,29.15,NNW,340,0.0,2.0,79,0.00,,,0.00,meteohub,2013-03-06 05:00:00,
2013-03-06 00:01:00,32.5,26.8,29.15,NNW,340,0.0,2.0,79,0.00,,,0.00,meteohub,2013-03-06 05:01:00,
2013-03-06 00:05:00,32.5,26.7,28.35,NNW,340,0.0,0.0,79,0.00,,---,0.00,VWS V14.01,2013-03-06 05:05:00,
2013-03-06 00:10:00,32.5,26.7,28.35,NNW,340,0.0,0.0,79,0.00,,---,0.00,VWS V14.01,2013-03-06 05:10:00,
2013-03-06 00:15:00,32.5,26.7,28.35,NNW,340,0.0,0.0,79,0.00,,---,0.00,VWS V14.01,2013-03-06 05:15:00,
2013-03-06 00:20:00,32.5,27.0,28.34,NNW,340,0.0,0.0,80,0.00,,---,0.00,VWS V14.01,2013-03-06 05:20:00,
2013-03-06 00:25:00,32.5,27.0,28.34,NNW,340,0.0,0.0,80,0.00,,---,0.00,VWS V14.01,2013-03-06 05:25:00,
2013-03-06 00:30:00,32.5,27.0,28.34,NNW,340,0.0,0.0,80,0.00,,---,0.00,VWS V14.01,2013-03-06 05:30:00,
2013-03-06 00:35:00,32.5,27.3,28.33,East,87,0.0,0.0,81,0.00,,---,0.00,VWS V14.01,2013-03-06 05:35:00,
2013-03-06 00:36:00,32.7,27.5,28.33,East,87,0.0,0.0,81,0.00,,---,0.00,VWS V14.01,2013-03-06 05:36:00,
2013-03-06 00:40:00,32.7,27.5,28.33,SE,126,0.0,0.0,81,0.00,,---,0.00,VWS V14.01,2013-03-06 05:40:00,
2013-03-06 00:43:00,32.7,27.5,28.33,SE,126,0.0,0.0,81,0.00,,---,0.00,VWS V14.01,2013-03-06 05:43:00,
2013-03-06 00:45:00,32.7,27.5,28.33,SE,126,0.0,0.0,81,0.00,,---,0.00,VWS V14.01,2013-03-06 05:45:00,
2013-03-06 00:46:00,32.7,27.5,28.33,SE,126,0.0,0.0,81,0.00,,---,0.00,VWS V14.01,2013-03-06 05:46:00,
2013-03-06 00:48:00,32.7,27.5,28.33,SE,126,0.0,0.0,81,0.00,,---,0.00,VWS V14.01,2013-03-06 05:48:00,
2013-03-06 00:50:00,32.7,27.5,28.32,SE,126,0.0,0.0,81,0.00,,---,0.00,VWS V14.01,2013-03-06 05:50:00,
2013-03-06 00:51:00,32.7,27.5,28.32,SE,126,0.0,0.0,81,0.00,,---,0.00,VWS V14.01,2013-03-06 05:51:00,
2013-03-06 00:53:00,32.7,27.5,28.32,SE,126,0.0,0.0,81,0.00,,---,0.00,VWS V14.01,2013-03-06 05:53:00,
2013-03-06 00:57:00,32.7,27.5,28.32,SE,126,0.0,0.0,81,0.00,,---,0.00,VWS V14.01,2013-03-06 05:57:00,
2013-03-06 00:58:00,32.7,27.5,28.32,SE,126,0.0,0.0,81,0.00,,---,0.00,VWS V14.01,2013-03-06 05:58:00,
2013-03-06 01:02:00,32.7,27.5,28.32,SE,126,0.0,0.0,81,0.00,,---,0.00,VWS V14.01,2013-03-06 06:02:00,
2013-03-06 01:03:00,32.7,27.5,28.32,SE,126,0.0,0.0,81,0.00,,---,0.00,VWS V14.01,2013-03-06 06:03:00,
2013-03-06 01:07:00,32.7,27.5,28.32,SE,126,0.0,0.0,81,0.00,,---,0.00,VWS V14.01,2013-03-06 06:07:00,
2013-03-06 01:08:00,32.9,27.7,28.32,SE,126,0.0,0.0,81,0.00,,---,0.00,VWS V14.01,2013-03-06 06:08:00,
2013-03-06 01:11:00,32.9,27.7,28.32,SE,126,0.0,0.0,81,0.00,,---,0.00,VWS V14.01,2013-03-06 06:11:00,
2013-03-06 01:12:00,32.9,27.7,28.32,SE,126,0.0,0.0,81,0.00,,---,0.00,VWS V14.01,2013-03-06 06:12:00,
2013-03-06 01:13:00,32.9,27.7,28.32,SE,126,0.0,0.0,81,0.00,,---,0.00,VWS V14.01,2013-03-06 06:13:00,
2013-03-06 01:15:00,32.9,28.0,28.31,SE,126,0.0,0.0,82,0.00,,---,0.00,VWS V14.01,2013-03-06 06:15:00,
2013-03-06 01:17:00,32.9,28.0,28.31,SE,126,0.0,0.0,82,0.00,,---,0.00,VWS V14.01,2013-03-06 06:17:00,
2013-03-06 01:18:00,32.9,28.0,28.31,SE,126,0.0,0.0,82,0.00,,---,0.00,VWS V14.01,2013-03-06 06:18:00,
2013-03-06 01:21:00,33.1,28.2,28.31,SE,126,0.0,0.0,82,0.00,,---,0.00,VWS V14.01,2013-03-06 06:21:00,
2013-03-06 01:22:00,33.1,28.2,28.31,SE,126,0.0,0.0,82,0.00,,---,0.00,VWS V14.01,2013-03-06 06:22:00,
2013-03-06 01:23:00,33.1,28.2,28.31,SE,126,0.0,0.0,82,0.00,,---,0.00,VWS V14.01,2013-03-06 06:23:00,
2013-03-06 01:25:00,33.1,28.2,28.31,SE,126,0.0,0.0,82,0.00,,---,0.00,VWS V14.01,2013-03-06 06:25:00,
2013-03-06 01:26:00,33.1,28.2,28.31,SE,126,0.0,0.0,82,0.00,,---,0.00,VWS V14.01,2013-03-06 06:26:00,
2013-03-06 01:27:00,33.1,28.2,28.31,NE,45,0.0,0.0,82,0.00,,---,0.00,VWS V14.01,2013-03-06 06:27:00,
2013-03-06 01:28:00,33.1,28.5,28.31,NE,45,0.9,0.9,83,0.00,,---,0.00,VWS V14.01,2013-03-06 06:28:00,
2013-03-06 01:30:00,33.1,28.5,28.31,NE,45,0.9,0.9,83,0.00,,---,0.00,VWS V14.01,2013-03-06 06:30:00,
2013-03-06 01:31:00,33.1,28.5,28.31,NE,45,0.0,0.9,83,0.00,,---,0.00,VWS V14.01,2013-03-06 06:31:00,
2013-03-06 01:32:00,33.1,28.5,28.30,NE,45,0.0,0.9,83,0.00,,---,0.00,VWS V14.01,2013-03-06 06:32:00,
2013-03-06 01:33:00,33.1,28.5,28.30,NE,45,0.0,0.9,83,0.00,,---,0.00,VWS V14.01,2013-03-06 06:33:00,
2013-03-06 01:35:00,33.1,28.5,28.30,NE,45,0.9,0.9,83,0.00,,---,0.00,VWS V14.01,2013-03-06 06:35:00,
2013-03-06 01:36:00,33.1,28.5,28.30,NE,45,0.9,0.9,83,0.00,,---,0.00,VWS V14.01,2013-03-06 06:36:00,
2013-03-06 01:39:00,33.3,28.7,28.30,NE,45,0.0,0.0,83,0.00,,---,0.00,VWS V14.01,2013-03-06 06:39:00,
2013-03-06 01:40:00,33.1,28.5,28.30,NE,45,0.9,0.9,83,0.00,,---,0.00,VWS V14.01,2013-03-06 06:40:00,
2013-03-06 01:41:00,33.1,28.5,28.30,NE,45,0.9,0.9,83,0.00,,---,0.00,VWS V14.01,2013-03-06 06:41:00,
2013-03-06 01:44:00,33.3,28.7,28.30,NE,45,0.9,0.9,83,0.00,,---,0.00,VWS V14.01,2013-03-06 06:44:00,
2013-03-06 01:45:00,33.3,28.7,28.29,NE,45,0.9,0.9,83,0.00,,---,0.00,VWS V14.01,2013-03-06 06:45:00,
2013-03-06 01:46:00,33.3,28.7,28.29,NE,45,0.9,0.9,83,0.00,,---,0.00,VWS V14.01,2013-03-06 06:46:00,
2013-03-06 01:49:00,33.3,29.0,28.29,ENE,74,0.0,0.9,84,0.00,,---,0.00,VWS V14.01,2013-03-06 06:49:00,
2013-03-06 01:50:00,33.3,29.0,28.29,ENE,74,0.0,0.9,84,0.00,,---,0.00,VWS V14.01,2013-03-06 06:50:00,
2013-03-06 01:53:00,33.3,29.0,28.29,ENE,74,0.0,0.0,84,0.00,,---,0.00,VWS V14.01,2013-03-06 06:53:00,
2013-03-06 01:54:00,33.3,29.0,28.29,ENE,74,0.0,0.0,84,0.00,,---,0.00,VWS V14.01,2013-03-06 06:54:00,
2013-03-06 01:55:00,33.3,29.0,28.29,ENE,74,0.0,0.0,84,0.00,,---,0.00,VWS V14.01,2013-03-06 06:55:00,
2013-03-06 01:58:00,33.3,29.0,28.28,ENE,74,0.0,0.0,84,0.00,,---,0.00,VWS V14.01,2013-03-06 06:58:00,
2013-03-06 01:59:00,33.3,29.0,28.28,ENE,74,0.0,0.0,84,0.00,,---,0.00,VWS V14.01,2013-03-06 06:59:00,
2013-03-06 02:00:00,33.3,29.0,28.28,ENE,74,0.0,0.0,84,0.00,,---,0.00,VWS V14.01,2013-03-06 07:00:00,
2013-03-06 02:03:00,33.3,29.0,28.28,ENE,74,0.0,0.0,84,0.00,,---,0.00,VWS V14.01,2013-03-06 07:03:00,
2013-03-06 02:05:00,33.3,29.0,28.28,ENE,74,0.0,0.0,84,0.00,,---,0.00,VWS V14.01,2013-03-06 07:05:00,
2013-03-06 02:07:00,33.3,29.0,28.28,ENE,74,0.0,0.0,84,0.00,,---,0.00,VWS V14.01,2013-03-06 07:07:00,
2013-03-06 02:08:00,33.3,29.0,28.28,ENE,74,0.0,0.0,84,0.00,,---,0.00,VWS V14.01,2013-03-06 07:08:00,
2013-03-06 02:10:00,33.3,29.0,28.28,ENE,74,0.0,0.0,84,0.00,,---,0.00,VWS V14.01,2013-03-06 07:10:00,
2013-03-06 02:12:00,33.4,29.1,28.28,NNE,28,0.0,0.0,84,0.00,,---,0.00,VWS V14.01,2013-03-06 07:12:00,
2013-03-06 02:13:00,33.4,29.1,28.27,NNE,28,0.9,0.9,84,0.00,,---,0.00,VWS V14.01,2013-03-06 07:13:00,
2013-03-06 02:15:00,33.4,29.1,28.27,SSE,153,0.9,0.9,84,0.00,,---,0.00,VWS V14.01,2013-03-06 07:15:00,
2013-03-06 02:17:00,33.4,29.1,28.28,SSE,153,0.9,0.9,84,0.00,,---,0.00,VWS V14.01,2013-03-06 07:17:00,
2013-03-06 02:18:00,33.4,29.1,28.27,SSE,153,0.9,0.9,84,0.00,,---,0.00,VWS V14.01,2013-03-06 07:18:00,
2013-03-06 02:21:00,33.4,29.1,28.27,SSE,153,0.9,0.9,84,0.00,,---,0.00,VWS V14.01,2013-03-06 07:21:00,
2013-03-06 02:22:00,33.4,29.1,28.27,SSE,153,0.9,0.9,84,0.00,,---,0.00,VWS V14.01,2013-03-06 07:22:00,
2013-03-06 02:24:00,33.4,29.1,28.27,SSE,153,0.0,0.9,84,0.00,,---,0.00,VWS V14.01,2013-03-06 07:24:00,
2013-03-06 02:26:00,33.4,29.1,28.27,SSE,153,0.0,0.9,84,0.00,,---,0.00,VWS V14.01,2013-03-06 07:26:00,
2013-03-06 02:27:00,33.4,29.1,28.27,SSE,153,0.0,0.9,84,0.00,,---,0.00,VWS V14.01,2013-03-06 07:27:00,
2013-03-06 02:29:00,33.4,29.1,28.27,SSE,153,0.0,0.9,84,0.00,,---,0.00,VWS V14.01,2013-03-06 07:29:00,
2013-03-06 02:31:00,33.4,29.1,28.27,SSE,153,0.0,0.0,84,0.00,,---,0.00,VWS V14.01,2013-03-06 07:31:00,
2013-03-06 02:32:00,33.4,29.4,28.27,SSE,153,0.0,0.0,85,0.00,,---,0.00,VWS V14.01,2013-03-06 07:32:00,
2013-03-06 02:33:00,33.4,29.4,28.27,SSE,153,0.0,0.0,85,0.00,,---,0.00,VWS V14.01,2013-03-06 07:33:00,
2013-03-06 02:36:00,33.4,29.4,28.27,SSE,153,0.0,0.0,85,0.00,,---,0.00,VWS V14.01,2013-03-06 07:36:00,
2013-03-06 02:37:00,33.4,29.4,28.27,SSE,153,0.0,0.0,85,0.00,,---,0.00,VWS V14.01,2013-03-06 07:37:00,
2013-03-06 02:38:00,33.4,29.4,28.26,SSE,153,0.0,0.0,85,0.00,,---,0.00,VWS V14.01,2013-03-06 07:38:00,
2013-03-06 02:41:00,33.4,29.4,28.26,SSE,153,0.0,0.0,85,0.00,,---,0.00,VWS V14.01,2013-03-06 07:41:00,
2013-03-06 02:42:00,33.4,29.4,28.26,SSE,153,0.9,0.9,85,0.00,,---,0.00,VWS V14.01,2013-03-06 07:42:00,
2013-03-06 02:43:00,33.6,29.6,28.26,SSE,153,0.9,0.9,85,0.00,,---,0.00,VWS V14.01,2013-03-06 07:43:00,
2013-03-06 02:46:00,33.6,29.6,28.26,SSE,153,0.0,0.9,85,0.00,,---,0.00,VWS V14.01,2013-03-06 07:46:00,
2013-03-06 02:47:00,33.6,29.6,28.26,SSE,153,0.0,0.9,85,0.00,,---,0.00,VWS V14.01,2013-03-06 07:47:00,
2013-03-06 02:50:00,33.6,29.6,28.26,SSE,153,0.0,0.0,85,0.00,,---,0.00,VWS V14.01,2013-03-06 07:50:00,
2013-03-06 02:51:00,33.6,29.6,28.26,SSE,153,0.0,0.0,85,0.00,,---,0.00,VWS V14.01,2013-03-06 07:51:00,
2013-03-06 02:52:00,33.6,29.6,28.26,SSE,153,0.0,0.0,85,0.00,,---,0.00,VWS V14.01,2013-03-06 07:52:00,
2013-03-06 02:55:00,33.6,29.6,28.25,SSE,153,0.0,0.0,85,0.00,,---,0.00,VWS V14.01,2013-03-06 07:55:00,
2013-03-06 02:56:00,33.6,29.6,28.25,SSE,153,0.0,0.0,85,0.00,,---,0.00,VWS V14.01,2013-03-06 07:56:00,
2013-03-06 02:57:00,33.6,29.6,28.25,SSE,153,0.0,0.0,85,0.00,,---,0.00,VWS V14.01,2013-03-06 07:57:00,
2013-03-06 03:00:00,33.6,29.6,28.25,SSE,153,0.0,0.0,85,0.00,,---,0.00,VWS V14.01,2013-03-06 08:00:00,
2013-03-06 03:01:00,33.6,29.6,28.25,SSE,153,0.0,0.0,85,0.00,,---,0.00,VWS V14.01,2013-03-06 08:01:00,
2013-03-06 03:04:00,33.6,29.6,28.25,SSE,153,0.0,0.0,85,0.00,,---,0.00,VWS V14.01,2013-03-06 08:04:00,
2013-03-06 03:05:00,33.6,29.6,28.25,SSE,153,0.0,0.0,85,0.00,,---,0.00,VWS V14.01,2013-03-06 08:05:00,
2013-03-06 03:06:00,33.6,29.6,28.25,SSE,153,0.0,0.0,85,0.00,,---,0.00,VWS V14.01,2013-03-06 08:06:00,
2013-03-06 03:09:00,33.6,29.9,28.25,SSE,153,0.0,0.0,86,0.00,,---,0.00,VWS V14.01,2013-03-06 08:09:00,
2013-03-06 03:10:00,33.6,29.9,28.24,SSE,153,0.0,0.0,86,0.00,,---,0.00,VWS V14.01,2013-03-06 08:10:00,
2013-03-06 03:11:00,33.6,29.9,28.24,SSE,153,0.0,0.0,86,0.00,,---,0.00,VWS V14.01,2013-03-06 08:11:00,
2013-03-06 03:14:00,33.6,29.9,28.24,SSE,153,0.0,0.0,86,0.00,,---,0.00,VWS V14.01,2013-03-06 08:14:00,
2013-03-06 03:15:00,33.6,29.9,28.24,SSE,153,0.0,0.0,86,0.00,,---,0.00,VWS V14.01,2013-03-06 08:15:00,
2013-03-06 03:18:00,33.8,30.1,28.24,ENE,63,0.0,0.0,86,0.00,,---,0.00,VWS V14.01,2013-03-06 08:18:00,
2013-03-06 03:19:00,33.8,30.1,28.24,East,80,0.0,0.0,86,0.00,,---,0.00,VWS V14.01,2013-03-06 08:19:00,
2013-03-06 03:20:00,33.6,29.9,28.24,East,80,0.9,0.9,86,0.00,,---,0.00,VWS V14.01,2013-03-06 08:20:00,
2013-03-06 03:23:00,33.8,30.1,28.23,East,80,0.9,0.9,86,0.00,,---,0.00,VWS V14.01,2013-03-06 08:23:00,
2013-03-06 03:24:00,33.8,30.1,28.23,East,80,0.9,0.9,86,0.00,,---,0.00,VWS V14.01,2013-03-06 08:24:00,
2013-03-06 03:25:00,33.8,30.1,28.23,East,80,0.9,0.9,86,0.00,,---,0.00,VWS V14.01,2013-03-06 08:25:00,
2013-03-06 03:28:00,33.8,30.1,28.23,East,80,0.9,0.9,86,0.00,,---,0.00,VWS V14.01,2013-03-06 08:28:00,
2013-03-06 03:30:00,34.0,30.3,28.23,East,80,0.9,0.9,86,0.00,,---,0.00,VWS V14.01,2013-03-06 08:30:00,
2013-03-06 03:32:00,34.0,30.3,28.23,East,80,0.9,0.9,86,0.00,,---,0.00,VWS V14.01,2013-03-06 08:32:00,
2013-03-06 03:33:00,34.0,30.3,28.23,East,80,0.9,0.9,86,0.00,,---,0.00,VWS V14.01,2013-03-06 08:33:00,
2013-03-06 03:35:00,34.0,30.3,28.23,East,80,0.9,0.9,86,0.00,,---,0.00,VWS V14.01,2013-03-06 08:35:00,
2013-03-06 03:37:00,34.0,30.3,28.23,East,80,0.9,0.9,86,0.00,,---,0.00,VWS V14.01,2013-03-06 08:37:00,
2013-03-06 03:38:00,34.0,30.3,28.23,East,80,0.9,0.9,86,0.00,,---,0.00,VWS V14.01,2013-03-06 08:38:00,
2013-03-06 03:40:00,34.0,30.3,28.22,East,80,0.9,0.9,86,0.00,,---,0.00,VWS V14.01,2013-03-06 08:40:00,
2013-03-06 03:42:00,34.0,30.3,28.22,East,80,0.9,0.9,86,0.00,,---,0.00,VWS V14.01,2013-03-06 08:42:00,
2013-03-06 03:43:00,34.0,30.3,28.22,East,80,0.9,0.9,86,0.00,,---,0.00,VWS V14.01,2013-03-06 08:43:00,
2013-03-06 03:46:00,34.2,30.7,28.22,ENE,74,0.9,0.9,87,0.00,,---,0.00,VWS V14.01,2013-03-06 08:46:00,
2013-03-06 03:47:00,34.2,30.7,28.22,South,187,0.9,0.9,87,0.00,,---,0.00,VWS V14.01,2013-03-06 08:47:00,
2013-03-06 03:48:00,34.2,30.7,28.22,ENE,63,0.9,0.9,87,0.00,,---,0.00,VWS V14.01,2013-03-06 08:48:00,
2013-03-06 03:51:00,34.2,30.7,28.22,NNE,27,2.0,2.0,87,0.00,,---,0.00,VWS V14.01,2013-03-06 08:51:00,
2013-03-06 03:52:00,34.2,30.7,28.22,ENE,67,2.0,2.0,87,0.00,,---,0.00,VWS V14.01,2013-03-06 08:52:00,
2013-03-06 03:53:00,34.2,30.7,28.22,ENE,67,2.0,2.0,87,0.00,,---,0.00,VWS V14.01,2013-03-06 08:53:00,
2013-03-06 03:54:00,34.3,30.8,28.22,ENE,67,2.0,2.0,87,0.00,,---,0.00,VWS V14.01,2013-03-06 08:54:00,
2013-03-06 03:56:00,34.3,30.8,28.22,ENE,67,0.9,2.0,87,0.00,,---,0.00,VWS V14.01,2013-03-06 08:56:00,
2013-03-06 03:57:00,34.3,30.8,28.22,ENE,67,0.9,2.0,87,0.00,,---,0.00,VWS V14.01,2013-03-06 08:57:00,
2013-03-06 04:00:00,34.3,30.8,28.22,ENE,63,0.9,0.9,87,0.00,,---,0.00,VWS V14.01,2013-03-06 09:00:00,
2013-03-06 04:01:00,34.3,30.8,28.22,ENE,60,0.9,0.9,87,0.00,,---,0.00,VWS V14.01,2013-03-06 09:01:00,
2013-03-06 04:02:00,34.3,30.8,28.22,NE,52,0.9,0.9,87,0.00,,---,0.00,VWS V14.01,2013-03-06 09:02:00,
2013-03-06 04:05:00,34.3,30.8,28.22,NE,45,0.9,0.9,87,0.00,,---,0.00,VWS V14.01,2013-03-06 09:05:00,
2013-03-06 04:06:00,34.3,30.8,28.22,NE,45,0.9,0.9,87,0.00,,---,0.00,VWS V14.01,2013-03-06 09:06:00,
2013-03-06 04:07:00,34.3,30.8,28.21,NNE,30,2.0,2.0,87,0.00,,---,0.00,VWS V14.01,2013-03-06 09:07:00,
2013-03-06 04:10:00,34.3,30.6,28.21,NE,51,2.0,2.0,86,0.00,,---,0.00,VWS V14.01,2013-03-06 09:10:00,
2013-03-06 04:11:00,34.3,30.6,28.21,NNE,26,0.9,2.0,86,0.00,,---,0.00,VWS V14.01,2013-03-06 09:11:00,
2013-03-06 04:15:00,34.3,30.6,28.21,ENE,65,2.0,2.0,86,0.00,,---,0.00,VWS V14.01,2013-03-06 09:15:00,
2013-03-06 04:16:00,34.3,30.6,28.21,ENE,65,2.0,2.0,86,0.00,,---,0.00,VWS V14.01,2013-03-06 09:16:00,
2013-03-06 04:20:00,34.3,30.8,28.21,NE,36,2.0,2.0,87,0.00,,---,0.00,VWS V14.01,2013-03-06 09:20:00,
2013-03-06 04:21:00,34.3,30.8,28.21,NNE,21,2.0,2.0,87,0.00,,---,0.00,VWS V14.01,2013-03-06 09:21:00,
2013-03-06 04:25:00,34.5,31.0,28.22,ENE,61,2.0,2.0,87,0.00,,---,0.00,VWS V14.01,2013-03-06 09:25:00,
2013-03-06 04:28:00,34.7,31.2,28.22,NNE,28,2.0,2.0,87,0.00,,---,0.00,VWS V14.01,2013-03-06 09:28:00,
2013-03-06 04:30:00,34.7,31.2,28.22,East,88,2.0,2.0,87,0.00,,---,0.00,VWS V14.01,2013-03-06 09:30:00,
2013-03-06 04:33:00,34.9,31.4,28.22,ENE,59,2.0,2.0,87,0.00,,---,0.00,VWS V14.01,2013-03-06 09:33:00,
2013-03-06 04:35:00,34.9,31.4,28.21,ESE,109,2.0,2.0,87,0.00,,---,0.00,VWS V14.01,2013-03-06 09:35:00,
2013-03-06 04:38:00,34.9,31.4,28.21,NE,46,2.0,2.0,87,0.00,,---,0.00,VWS V14.01,2013-03-06 09:38:00,
2013-03-06 04:40:00,34.9,31.4,28.21,NNE,26,2.0,2.0,87,0.00,,---,0.00,VWS V14.01,2013-03-06 09:40:00,
2013-03-06 04:42:00,34.9,31.4,28.21,ESE,108,2.0,2.0,87,0.00,,---,0.00,VWS V14.01,2013-03-06 09:42:00,
2013-03-06 04:43:00,34.9,31.4,28.21,ENE,72,2.0,2.0,87,0.00,,---,0.00,VWS V14.01,2013-03-06 09:43:00,
2013-03-06 04:45:00,34.9,31.4,28.21,NNW,332,2.0,2.0,87,0.00,,---,0.00,VWS V14.01,2013-03-06 09:45:00,
2013-03-06 04:47:00,34.9,31.4,28.20,North,355,2.0,2.0,87,0.00,,---,0.00,VWS V14.01,2013-03-06 09:47:00,
2013-03-06 04:48:00,34.9,31.4,28.21,ESE,111,2.0,2.0,87,0.00,,---,0.00,VWS V14.01,2013-03-06 09:48:00,
2013-03-06 04:50:00,34.9,31.4,28.21,NE,55,2.0,2.0,87,0.00,,---,0.00,VWS V14.01,2013-03-06 09:50:00,
2013-03-06 04:52:00,34.9,31.4,28.21,ENE,57,2.0,2.0,87,0.00,,---,0.00,VWS V14.01,2013-03-06 09:52:00,
2013-03-06 04:54:00,34.9,31.4,28.21,NNE,19,2.0,2.0,87,0.00,,---,0.00,VWS V14.01,2013-03-06 09:54:00,
2013-03-06 04:56:00,34.9,31.4,28.20,NNE,30,2.0,2.0,87,0.00,,---,0.00,VWS V14.01,2013-03-06 09:56:00,
2013-03-06 04:57:00,34.9,31.4,28.20,East,80,2.0,2.0,87,0.00,,---,0.00,VWS V14.01,2013-03-06 09:57:00,
2013-03-06 04:59:00,34.7,31.5,28.21,North,11,2.0,2.0,88,0.00,,---,0.00,VWS V14.01,2013-03-06 09:59:00,
2013-03-06 05:01:00,34.7,31.5,28.21,NE,41,2.0,2.0,88,0.00,,---,0.00,VWS V14.01,2013-03-06 10:01:00,
2013-03-06 05:02:00,34.7,31.5,28.21,ENE,61,2.0,2.0,88,0.00,,---,0.00,VWS V14.01,2013-03-06 10:02:00,
2013-03-06 05:04:00,34.7,31.5,28.21,ENE,61,2.0,2.0,88,0.00,,---,0.00,VWS V14.01,2013-03-06 10:04:00,
2013-03-06 05:06:00,34.7,31.5,28.21,ENE,61,2.0,2.0,88,0.00,,---,0.00,VWS V14.01,2013-03-06 10:06:00,
2013-03-06 05:07:00,34.5,31.3,28.20,East,79,2.0,2.0,88,0.00,,---,0.00,VWS V14.01,2013-03-06 10:07:00,
2013-03-06 05:10:00,34.5,31.3,28.20,ENE,64,2.0,2.0,88,0.00,,---,0.00,VWS V14.01,2013-03-06 10:10:00,
2013-03-06 05:11:00,34.5,31.3,28.20,NE,53,2.0,2.0,88,0.00,,---,0.00,VWS V14.01,2013-03-06 10:11:00,
2013-03-06 05:13:00,34.5,31.3,28.20,NE,37,2.0,2.0,88,0.00,,---,0.00,VWS V14.01,2013-03-06 10:13:00,
2013-03-06 05:15:00,34.5,31.3,28.20,ENE,67,2.0,2.0,88,0.00,,---,0.00,VWS V14.01,2013-03-06 10:15:00,
2013-03-06 05:16:00,34.7,31.5,28.20,NE,44,2.0,2.0,88,0.00,,---,0.00,VWS V14.01,2013-03-06 10:16:00,
2013-03-06 05:18:00,34.5,31.3,28.20,ENE,59,2.0,2.0,88,0.00,,---,0.00,VWS V14.01,2013-03-06 10:18:00,
2013-03-06 05:21:00,34.7,31.8,28.20,ENE,61,2.0,2.0,89,0.00,,---,0.00,VWS V14.01,2013-03-06 10:21:00,
2013-03-06 05:22:00,34.7,31.8,28.20,ENE,69,2.0,2.0,89,0.00,,---,0.00,VWS V14.01,2013-03-06 10:22:00,
2013-03-06 05:24:00,34.7,31.8,28.20,ENE,69,2.0,2.0,89,0.00,,---,0.00,VWS V14.01,2013-03-06 10:24:00,
2013-03-06 05:26:00,34.7,31.8,28.20,ENE,65,2.0,2.0,89,0.00,,---,0.00,VWS V14.01,2013-03-06 10:26:00,
2013-03-06 05:27:00,34.7,31.8,28.20,ESE,118,2.0,2.0,89,0.00,,---,0.00,VWS V14.01,2013-03-06 10:27:00,
2013-03-06 05:29:00,34.7,31.8,28.20,East,83,2.0,2.0,89,0.00,,---,0.00,VWS V14.01,2013-03-06 10:29:00,
2013-03-06 05:31:00,34.7,31.8,28.20,NE,55,2.0,2.0,89,0.00,,---,0.00,VWS V14.01,2013-03-06 10:31:00,
2013-03-06 05:32:00,34.7,31.8,28.20,SSE,147,2.0,2.0,89,0.00,,---,0.00,VWS V14.01,2013-03-06 10:32:00,
2013-03-06 05:34:00,34.7,31.8,28.20,NE,38,2.0,2.0,89,0.00,,---,0.00,VWS V14.01,2013-03-06 10:34:00,
2013-03-06 05:36:00,34.7,31.8,28.20,NE,49,2.0,2.0,89,0.00,,---,0.00,VWS V14.01,2013-03-06 10:36:00,
2013-03-06 05:38:00,34.7,31.8,28.20,NE,40,2.0,2.0,89,0.00,,---,0.00,VWS V14.01,2013-03-06 10:38:00,
2013-03-06 05:39:00,34.7,31.8,28.20,NE,51,2.0,2.0,89,0.00,,---,0.00,VWS V14.01,2013-03-06 10:39:00,
2013-03-06 05:41:00,34.7,31.8,28.20,ENE,62,2.0,2.0,89,0.00,,---,0.00,VWS V14.01,2013-03-06 10:41:00,
2013-03-06 05:43:00,34.7,31.8,28.20,ENE,68,2.0,2.0,89,0.00,,---,0.00,VWS V14.01,2013-03-06 10:43:00,
2013-03-06 05:44:00,34.7,31.8,28.20,NNE,19,2.0,2.0,89,0.00,,---,0.00,VWS V14.01,2013-03-06 10:44:00,
2013-03-06 05:46:00,34.7,31.8,28.19,NNE,28,2.0,2.0,89,0.00,,---,0.00,VWS V14.01,2013-03-06 10:46:00,
2013-03-06 05:48:00,34.7,31.8,28.19,ENE,57,2.0,2.0,89,0.00,,---,0.00,VWS V14.01,2013-03-06 10:48:00,
2013-03-06 05:49:00,34.7,31.8,28.19,ENE,58,2.0,2.0,89,0.00,,---,0.00,VWS V14.01,2013-03-06 10:49:00,
2013-03-06 05:52:00,34.7,31.8,28.19,ENE,58,2.0,2.0,89,0.00,,---,0.00,VWS V14.01,2013-03-06 10:52:00,
2013-03-06 05:53:00,34.7,31.8,28.19,ENE,58,2.0,2.0,89,0.00,,---,0.00,VWS V14.01,2013-03-06 10:53:00,
2013-03-06 05:54:00,34.7,31.8,28.19,ENE,70,2.0,2.0,89,0.00,,---,0.00,VWS V14.01,2013-03-06 10:54:00,
2013-03-06 05:57:00,34.7,31.8,28.19,NE,55,2.0,2.0,89,0.00,,---,0.00,VWS V14.01,2013-03-06 10:57:00,
2013-03-06 05:58:00,34.7,31.8,28.19,NE,55,2.0,2.0,89,0.00,,---,0.00,VWS V14.01,2013-03-06 10:58:00,
2013-03-06 05:59:00,34.7,31.8,28.19,NE,52,2.0,2.0,89,0.00,,---,0.00,VWS V14.01,2013-03-06 10:59:00,
2013-03-06 06:03:00,34.7,32.1,28.19,NE,47,2.0,2.0,90,0.00,,---,0.00,VWS V14.01,2013-03-06 11:03:00,
2013-03-06 06:04:00,34.7,32.1,28.19,SE,126,2.0,2.0,90,0.00,,---,0.00,VWS V14.01,2013-03-06 11:04:00,
2013-03-06 06:06:00,34.7,32.1,28.19,East,80,2.0,2.0,90,0.00,,---,0.00,VWS V14.01,2013-03-06 11:06:00,
2013-03-06 06:08:00,34.7,32.1,28.19,NE,51,2.0,2.0,90,0.00,,---,0.00,VWS V14.01,2013-03-06 11:08:00,
2013-03-06 06:09:00,34.7,32.1,28.19,NE,51,2.0,2.0,90,0.00,,---,0.00,VWS V14.01,2013-03-06 11:09:00,
2013-03-06 06:11:00,34.7,32.1,28.19,ENE,75,2.0,2.0,90,0.00,,---,0.00,VWS V14.01,2013-03-06 11:11:00,
2013-03-06 06:13:00,34.7,32.1,28.19,ENE,65,2.0,2.0,90,0.00,,---,0.00,VWS V14.01,2013-03-06 11:13:00,
2013-03-06 06:14:00,34.7,32.1,28.19,East,79,2.0,2.0,90,0.00,,---,0.00,VWS V14.01,2013-03-06 11:14:00,
2013-03-06 06:16:00,34.7,32.1,28.19,ENE,57,2.0,2.0,90,0.00,,---,0.00,VWS V14.01,2013-03-06 11:16:00,
2013-03-06 06:18:00,34.7,32.1,28.20,NNE,23,2.0,2.0,90,0.00,,---,0.00,VWS V14.01,2013-03-06 11:18:00,
2013-03-06 06:20:00,34.7,32.1,28.19,WNW,283,2.0,2.0,90,0.00,,---,0.00,VWS V14.01,2013-03-06 11:20:00,
2013-03-06 06:22:00,34.7,32.1,28.20,East,92,2.0,2.0,90,0.00,,---,0.00,VWS V14.01,2013-03-06 11:22:00,
2013-03-06 06:23:00,34.9,32.3,28.19,East,92,2.0,2.0,90,0.00,,---,0.00,VWS V14.01,2013-03-06 11:23:00,
2013-03-06 06:25:00,34.9,32.3,28.20,NE,46,2.0,2.0,90,0.00,,---,0.00,VWS V14.01,2013-03-06 11:25:00,
2013-03-06 06:27:00,34.9,32.3,28.20,ENE,75,2.0,2.0,90,0.00,,---,0.00,VWS V14.01,2013-03-06 11:27:00,
2013-03-06 06:28:00,34.9,32.3,28.20,NNE,21,2.0,2.0,90,0.00,,---,0.00,VWS V14.01,2013-03-06 11:28:00,
2013-03-06 06:30:00,34.9,32.3,28.20,NNE,23,2.0,2.0,90,0.00,,---,0.00,VWS V14.01,2013-03-06 11:30:00,
2013-03-06 06:32:00,34.9,32.3,28.20,South,180,2.0,2.0,90,0.00,,---,0.00,VWS V14.01,2013-03-06 11:32:00,
2013-03-06 06:34:00,34.9,32.3,28.20,NE,55,2.0,2.0,90,0.00,,---,0.00,VWS V14.01,2013-03-06 11:34:00,
2013-03-06 06:35:00,34.9,32.3,28.20,NE,55,2.0,2.0,90,0.00,,---,0.00,VWS V14.01,2013-03-06 11:35:00,
2013-03-06 06:37:00,34.9,32.3,28.20,NE,42,2.0,2.0,90,0.00,,---,0.00,VWS V14.01,2013-03-06 11:37:00,
2013-03-06 06:40:00,34.7,32.1,28.20,NE,42,2.0,2.0,90,0.00,,---,0.00,VWS V14.01,2013-03-06 11:40:00,
2013-03-06 06:41:00,34.7,32.1,28.20,NNE,28,2.0,2.0,90,0.00,,---,0.00,VWS V14.01,2013-03-06 11:41:00,
2013-03-06 06:42:00,34.7,32.1,28.20,ENE,74,2.0,2.0,90,0.00,,---,0.00,VWS V14.01,2013-03-06 11:42:00,
2013-03-06 06:45:00,34.5,31.9,28.20,ENE,71,2.0,2.0,90,0.00,,---,0.00,VWS V14.01,2013-03-06 11:45:00,
2013-03-06 06:46:00,34.5,31.9,28.20,NE,40,2.0,2.0,90,0.00,,---,0.01,VWS V14.01,2013-03-06 11:46:00,
2013-03-06 06:49:00,34.5,31.9,28.20,ENE,65,2.0,2.0,90,0.00,,---,0.01,VWS V14.01,2013-03-06 11:49:00,
2013-03-06 06:50:00,34.5,31.9,28.20,ENE,65,2.0,2.0,90,0.00,,---,0.01,VWS V14.01,2013-03-06 11:50:00,
2013-03-06 06:51:00,34.3,31.7,28.20,ENE,65,2.0,2.0,90,0.00,,---,0.01,VWS V14.01,2013-03-06 11:51:00,
2013-03-06 06:54:00,34.3,31.7,28.20,ENE,63,2.0,2.0,90,0.00,,---,0.01,VWS V14.01,2013-03-06 11:54:00,
2013-03-06 06:55:00,34.3,31.7,28.20,ENE,63,2.0,2.0,90,0.00,,---,0.01,VWS V14.01,2013-03-06 11:55:00,
2013-03-06 06:56:00,34.3,31.7,28.20,NE,41,2.0,2.0,90,0.00,,---,0.01,VWS V14.01,2013-03-06 11:56:00,
2013-03-06 06:59:00,34.3,31.7,28.20,ENE,69,2.0,2.0,90,0.00,,---,0.01,VWS V14.01,2013-03-06 11:59:00,
2013-03-06 07:00:00,34.3,31.7,28.20,NE,36,2.0,2.0,90,0.00,,---,0.01,VWS V14.01,2013-03-06 12:00:00,
2013-03-06 07:01:00,34.3,31.7,28.21,ENE,63,2.0,2.0,90,0.00,,---,0.01,VWS V14.01,2013-03-06 12:01:00,
2013-03-06 07:04:00,34.3,32.0,28.21,NNE,22,2.0,2.0,91,0.00,,---,0.01,VWS V14.01,2013-03-06 12:04:00,
2013-03-06 07:05:00,34.3,32.0,28.20,ENE,76,2.0,2.0,91,0.00,,---,0.01,VWS V14.01,2013-03-06 12:05:00,
2013-03-06 07:06:00,34.3,32.0,28.20,NNE,31,2.0,2.0,91,0.00,,---,0.02,VWS V14.01,2013-03-06 12:06:00,
2013-03-06 07:09:00,34.3,32.0,28.21,East,80,2.0,2.0,91,0.00,,---,0.02,VWS V14.01,2013-03-06 12:09:00,
2013-03-06 07:10:00,34.3,32.0,28.21,NE,43,2.0,2.0,91,0.00,,---,0.02,VWS V14.01,2013-03-06 12:10:00,
2013-03-06 07:11:00,34.3,32.0,28.20,ENE,70,2.0,2.0,91,0.00,,---,0.02,VWS V14.01,2013-03-06 12:11:00,
2013-03-06 07:14:00,34.3,32.0,28.20,ENE,59,2.0,2.0,91,0.00,,---,0.02,VWS V14.01,2013-03-06 12:14:00,
2013-03-06 07:15:00,34.3,32.0,28.20,NE,37,2.0,2.0,91,0.00,,---,0.02,VWS V14.01,2013-03-06 12:15:00,
2013-03-06 07:16:00,34.3,32.0,28.20,NE,51,2.0,2.0,91,0.00,,---,0.02,VWS V14.01,2013-03-06 12:16:00,
2013-03-06 07:19:00,34.3,32.0,28.20,NE,46,2.0,2.0,91,0.00,,---,0.02,VWS V14.01,2013-03-06 12:19:00,
2013-03-06 07:20:00,34.3,32.0,28.20,NNE,32,2.0,2.0,91,0.00,,---,0.02,VWS V14.01,2013-03-06 12:20:00,
2013-03-06 07:21:00,34.3,32.0,28.20,ENE,61,2.0,2.0,91,0.00,,---,0.02,VWS V14.01,2013-03-06 12:21:00,
2013-03-06 07:24:00,34.5,32.2,28.20,NE,46,2.0,2.0,91,0.00,,---,0.02,VWS V14.01,2013-03-06 12:24:00,
2013-03-06 07:25:00,34.5,32.2,28.20,NE,47,2.0,2.0,91,0.00,,---,0.02,VWS V14.01,2013-03-06 12:25:00,
2013-03-06 07:26:00,34.5,32.2,28.20,ESE,102,2.0,2.0,91,0.00,,---,0.02,VWS V14.01,2013-03-06 12:26:00,
2013-03-06 07:29:00,34.9,32.5,28.20,East,79,2.0,2.0,91,0.00,,---,0.02,VWS V14.01,2013-03-06 12:29:00,
2013-03-06 07:30:00,34.9,32.8,28.20,ENE,76,2.0,2.0,92,0.00,,---,0.02,VWS V14.01,2013-03-06 12:30:00,
2013-03-06 07:31:00,34.9,32.8,28.20,ENE,76,2.0,2.0,92,0.00,,---,0.02,VWS V14.01,2013-03-06 12:31:00,
2013-03-06 07:32:00,34.9,32.8,28.20,NE,38,2.0,2.0,92,0.00,,---,0.02,VWS V14.01,2013-03-06 12:32:00,
2013-03-06 07:34:00,34.9,32.8,28.20,NE,49,2.0,2.0,92,0.00,,---,0.02,VWS V14.01,2013-03-06 12:34:00,
2013-03-06 07:35:00,34.9,32.8,28.20,ENE,57,2.0,2.0,92,0.00,,---,0.02,VWS V14.01,2013-03-06 12:35:00,
2013-03-06 07:36:00,34.9,32.8,28.20,ENE,57,2.0,2.0,92,0.00,,---,0.02,VWS V14.01,2013-03-06 12:36:00,
2013-03-06 07:37:00,35.1,33.0,28.20,NE,53,2.0,2.0,92,0.00,,---,0.02,VWS V14.01,2013-03-06 12:37:00,
2013-03-06 07:39:00,35.1,33.0,28.20,ENE,57,2.0,2.0,92,0.00,,---,0.02,VWS V14.01,2013-03-06 12:39:00,
2013-03-06 07:40:00,35.1,33.0,28.20,NE,47,2.0,2.0,92,0.00,,---,0.02,VWS V14.01,2013-03-06 12:40:00,
2013-03-06 07:41:00,35.1,33.0,28.20,NE,47,2.0,2.0,92,0.00,,---,0.02,VWS V14.01,2013-03-06 12:41:00,
2013-03-06 07:42:00,35.1,33.0,28.20,NE,47,2.0,2.0,92,0.00,,---,0.02,VWS V14.01,2013-03-06 12:42:00,
2013-03-06 07:44:00,35.1,33.0,28.20,NE,47,2.0,2.0,92,0.00,,---,0.02,VWS V14.01,2013-03-06 12:44:00,
2013-03-06 07:47:00,35.1,32.9,28.99,ENE,68,2.0,5.0,92,0.01,,,0.02,meteohub,2013-03-06 12:47:00,
2013-03-06 07:49:00,35.1,33.0,28.20,NE,41,2.0,2.0,92,0.00,,---,0.02,VWS V14.01,2013-03-06 12:49:00,
2013-03-06 07:52:00,35.1,33.0,28.19,NE,49,2.0,2.0,92,0.00,,---,0.02,VWS V14.01,2013-03-06 12:52:00,
2013-03-06 07:54:00,35.1,33.0,28.19,NE,55,2.9,2.9,92,0.00,,---,0.02,VWS V14.01,2013-03-06 12:54:00,
2013-03-06 07:57:00,35.1,33.0,28.19,ENE,57,2.9,2.9,92,0.00,,---,0.02,VWS V14.01,2013-03-06 12:57:00,
2013-03-06 08:01:00,35.1,33.0,28.19,NNE,22,2.9,2.9,92,0.00,,---,0.02,VWS V14.01,2013-03-06 13:01:00,
2013-03-06 08:02:00,35.1,33.0,28.19,NE,42,2.9,2.9,92,0.00,,---,0.02,VWS V14.01,2013-03-06 13:02:00,
2013-03-06 08:06:00,35.2,33.1,28.19,ESE,121,2.9,2.9,92,0.00,,---,0.02,VWS V14.01,2013-03-06 13:06:00,
2013-03-06 08:07:00,35.2,33.1,28.19,NE,39,2.9,2.9,92,0.00,,---,0.02,VWS V14.01,2013-03-06 13:07:00,
2013-03-06 08:08:00,35.2,33.1,28.19,ENE,66,2.9,2.9,92,0.00,,---,0.02,VWS V14.01,2013-03-06 13:08:00,
2013-03-06 08:11:00,35.2,33.1,28.19,ENE,74,2.9,2.9,92,0.00,,---,0.02,VWS V14.01,2013-03-06 13:11:00,
2013-03-06 08:12:00,35.2,33.1,28.19,ENE,74,2.9,2.9,92,0.00,,---,0.02,VWS V14.01,2013-03-06 13:12:00,
2013-03-06 08:13:00,35.2,33.1,28.19,ENE,70,2.9,2.9,92,0.00,,---,0.02,VWS V14.01,2013-03-06 13:13:00,
2013-03-06 08:17:00,35.2,33.1,28.19,ENE,61,2.9,2.9,92,0.00,,---,0.02,VWS V14.01,2013-03-06 13:17:00,
2013-03-06 08:18:00,35.2,33.1,28.19,NE,53,2.9,2.9,92,0.00,,---,0.02,VWS V14.01,2013-03-06 13:18:00,
2013-03-06 08:22:00,35.2,33.1,28.19,ENE,68,2.0,2.9,92,0.00,,---,0.02,VWS V14.01,2013-03-06 13:22:00,
2013-03-06 08:23:00,35.2,33.1,28.19,NW,304,2.0,2.9,92,0.00,,---,0.02,VWS V14.01,2013-03-06 13:23:00,
2013-03-06 08:27:00,35.2,33.1,28.19,NE,45,2.0,2.9,92,0.00,,---,0.02,VWS V14.01,2013-03-06 13:27:00,
2013-03-06 08:28:00,35.2,33.1,28.99,ENE,63,3.0,8.0,92,0.00,,,0.02,meteohub,2013-03-06 13:28:00,
2013-03-06 08:29:00,35.2,33.1,28.19,ENE,63,2.9,2.9,92,0.00,,---,0.02,VWS V14.01,2013-03-06 13:29:00,
2013-03-06 08:32:00,35.2,33.1,28.19,ENE,65,2.9,2.9,92,0.00,,---,0.02,VWS V14.01,2013-03-06 13:32:00,
2013-03-06 08:34:00,35.2,33.1,28.19,NNE,32,2.9,2.9,92,0.00,,---,0.02,VWS V14.01,2013-03-06 13:34:00,
2013-03-06 08:37:00,35.2,33.1,28.19,ENE,59,2.9,2.9,92,0.00,,---,0.02,VWS V14.01,2013-03-06 13:37:00,
2013-03-06 08:39:00,35.4,33.3,28.19,NE,49,2.9,2.9,92,0.00,,---,0.02,VWS V14.01,2013-03-06 13:39:00,
2013-03-06 08:40:00,35.4,33.3,28.19,NE,49,2.9,2.9,92,0.00,,---,0.02,VWS V14.01,2013-03-06 13:40:00,
2013-03-06 08:43:00,35.4,33.3,28.19,ENE,57,2.9,2.9,92,0.00,,---,0.02,VWS V14.01,2013-03-06 13:43:00,
2013-03-06 08:44:00,35.4,33.3,28.19,ENE,67,2.9,2.9,92,0.00,,---,0.02,VWS V14.01,2013-03-06 13:44:00,
2013-03-06 08:45:00,35.4,33.3,28.19,ENE,67,2.9,2.9,92,0.00,,---,0.02,VWS V14.01,2013-03-06 13:45:00,
2013-03-06 08:48:00,35.8,33.7,28.18,North,5,2.9,2.9,92,0.00,,---,0.02,VWS V14.01,2013-03-06 13:48:00,
2013-03-06 08:49:00,35.8,33.7,28.18,NE,44,2.9,2.9,92,0.00,,---,0.02,VWS V14.01,2013-03-06 13:49:00,
2013-03-06 08:50:00,35.8,33.7,28.18,NE,44,2.9,2.9,92,0.00,,---,0.02,VWS V14.01,2013-03-06 13:50:00,
2013-03-06 08:53:00,36.0,33.9,28.19,ENE,59,2.9,2.9,92,0.00,,---,0.02,VWS V14.01,2013-03-06 13:53:00,
2013-03-06 08:54:00,36.0,33.9,28.19,NE,42,2.9,2.9,92,0.00,,---,0.02,VWS V14.01,2013-03-06 13:54:00,
2013-03-06 08:55:00,36.0,33.9,28.19,NE,42,2.9,2.9,92,0.00,,---,0.02,VWS V14.01,2013-03-06 13:55:00,
2013-03-06 08:58:00,36.1,34.0,28.19,NNE,19,2.9,2.9,92,0.00,,---,0.02,VWS V14.01,2013-03-06 13:58:00,
2013-03-06 09:00:00,36.1,34.0,28.19,SE,146,2.9,2.9,92,0.00,,---,0.02,VWS V14.01,2013-03-06 14:00:00,
2013-03-06 09:03:00,36.1,34.0,28.19,NE,51,2.9,2.9,92,0.00,,---,0.02,VWS V14.01,2013-03-06 14:03:00,
2013-03-06 09:05:00,36.1,34.0,28.19,ENE,65,2.9,2.9,92,0.00,,---,0.02,VWS V14.01,2013-03-06 14:05:00,
2013-03-06 09:08:00,36.1,34.0,28.19,ENE,74,4.0,4.0,92,0.00,,---,0.02,VWS V14.01,2013-03-06 14:08:00,
2013-03-06 09:10:00,36.1,34.0,28.99,East,91,5.0,10.0,92,0.00,,,0.02,meteohub,2013-03-06 14:10:00,
2013-03-06 09:11:00,36.1,34.0,28.19,ENE,65,4.0,4.0,92,0.00,,---,0.02,VWS V14.01,2013-03-06 14:11:00,
2013-03-06 09:14:00,36.3,34.2,28.19,NE,51,2.9,4.0,92,0.00,,---,0.02,VWS V14.01,2013-03-06 14:14:00,
2013-03-06 09:16:00,36.3,34.2,28.19,ENE,59,2.9,4.0,92,0.00,,---,0.02,VWS V14.01,2013-03-06 14:16:00,
2013-03-06 09:17:00,36.3,34.2,28.19,NE,53,2.9,4.0,92,0.00,,---,0.02,VWS V14.01,2013-03-06 14:17:00,
2013-03-06 09:19:00,36.3,34.2,28.19,NE,36,2.9,4.0,92,0.00,,---,0.02,VWS V14.01,2013-03-06 14:19:00,
2013-03-06 09:21:00,36.5,34.4,28.19,ENE,63,2.9,4.0,92,0.00,,---,0.02,VWS V14.01,2013-03-06 14:21:00,
2013-03-06 09:22:00,36.5,34.4,28.19,ENE,63,2.9,4.0,92,0.00,,---,0.02,VWS V14.01,2013-03-06 14:22:00,
2013-03-06 09:25:00,36.7,34.6,28.20,North,11,2.9,2.9,92,0.00,,---,0.02,VWS V14.01,2013-03-06 14:25:00,
2013-03-06 09:26:00,36.7,34.6,28.20,NE,46,2.9,2.9,92,0.00,,---,0.02,VWS V14.01,2013-03-06 14:26:00,
2013-03-06 09:27:00,36.7,34.6,28.20,NE,46,2.9,2.9,92,0.00,,---,0.02,VWS V14.01,2013-03-06 14:27:00,
2013-03-06 09:30:00,36.9,34.8,28.19,NE,43,2.9,2.9,92,0.00,,---,0.02,VWS V14.01,2013-03-06 14:30:00,
2013-03-06 09:31:00,36.9,34.8,28.20,NNE,30,2.9,2.9,92,0.00,,---,0.02,VWS V14.01,2013-03-06 14:31:00,
2013-03-06 09:32:00,36.9,34.8,28.20,NNE,30,2.9,2.9,92,0.00,,---,0.02,VWS V14.01,2013-03-06 14:32:00,
2013-03-06 09:36:00,36.9,34.8,28.19,NE,47,2.9,2.9,92,0.00,,---,0.02,VWS V14.01,2013-03-06 14:36:00,
2013-03-06 09:37:00,36.9,34.8,28.20,ENE,71,2.9,2.9,92,0.00,,---,0.02,VWS V14.01,2013-03-06 14:37:00,
2013-03-06 09:41:00,36.9,34.5,28.20,NE,47,2.9,2.9,91,0.00,,---,0.02,VWS V14.01,2013-03-06 14:41:00,
2013-03-06 09:42:00,36.9,34.8,28.20,NE,55,2.9,2.9,92,0.00,,---,0.02,VWS V14.01,2013-03-06 14:42:00,
2013-03-06 09:46:00,36.7,34.6,28.20,ENE,69,2.9,2.9,92,0.00,,---,0.02,VWS V14.01,2013-03-06 14:46:00,
2013-03-06 09:47:00,36.7,34.3,28.20,NE,46,2.9,2.9,91,0.00,,---,0.02,VWS V14.01,2013-03-06 14:47:00,
2013-03-06 09:51:00,36.7,34.3,28.20,ENE,64,2.9,2.9,91,0.00,,---,0.02,VWS V14.01,2013-03-06 14:51:00,
2013-03-06 09:53:00,36.7,34.3,28.99,East,98,1.0,8.0,91,0.00,,,0.02,meteohub,2013-03-06 14:53:00,
2013-03-06 09:54:00,36.7,34.3,28.20,North,11,2.9,2.9,91,0.00,,---,0.02,VWS V14.01,2013-03-06 14:54:00,
2013-03-06 09:56:00,36.7,34.3,28.19,NE,47,2.9,2.9,91,0.00,,---,0.02,VWS V14.01,2013-03-06 14:56:00,
2013-03-06 09:59:00,36.7,34.3,28.19,NE,50,2.9,2.9,91,0.00,,---,0.02,VWS V14.01,2013-03-06 14:59:00,
2013-03-06 10:01:00,36.7,34.3,28.20,ENE,63,2.9,2.9,91,0.00,,---,0.02,VWS V14.01,2013-03-06 15:01:00,
2013-03-06 10:04:00,36.7,34.3,28.19,East,80,2.9,2.9,91,0.00,,---,0.02,VWS V14.01,2013-03-06 15:04:00,
2013-03-06 10:08:00,36.7,34.3,28.20,ENE,69,2.9,2.9,91,0.00,,---,0.02,VWS V14.01,2013-03-06 15:08:00,
2013-03-06 10:09:00,36.7,34.3,28.20,NE,55,2.9,2.9,91,0.00,,---,0.02,VWS V14.01,2013-03-06 15:09:00,
2013-03-06 10:13:00,36.7,34.3,28.19,NE,45,2.9,2.9,91,0.00,,---,0.02,VWS V14.01,2013-03-06 15:13:00,
2013-03-06 10:14:00,36.7,34.3,28.19,NE,38,2.9,2.9,91,0.00,,---,0.02,VWS V14.01,2013-03-06 15:14:00,
2013-03-06 10:18:00,36.7,34.3,28.20,ENE,67,2.9,2.9,91,0.00,,---,0.02,VWS V14.01,2013-03-06 15:18:00,
2013-03-06 10:19:00,36.7,34.3,28.19,NE,47,2.9,2.9,91,0.00,,---,0.02,VWS V14.01,2013-03-06 15:19:00,
2013-03-06 10:23:00,36.7,34.0,28.20,ENE,61,2.9,2.9,90,0.00,,---,0.02,VWS V14.01,2013-03-06 15:23:00,
2013-03-06 10:24:00,36.7,34.0,28.20,NE,51,2.9,2.9,90,0.00,,---,0.02,VWS V14.01,2013-03-06 15:24:00,
2013-03-06 10:28:00,36.7,34.0,28.20,North,355,2.9,2.9,90,0.00,,---,0.02,VWS V14.01,2013-03-06 15:28:00,
2013-03-06 10:29:00,36.7,34.0,28.20,ENE,77,2.9,2.9,90,0.00,,---,0.02,VWS V14.01,2013-03-06 15:29:00,
2013-03-06 10:33:00,36.7,34.0,28.19,ENE,62,2.9,2.9,90,0.00,,---,0.02,VWS V14.01,2013-03-06 15:33:00,
2013-03-06 10:34:00,36.7,34.0,28.19,ENE,60,4.0,4.0,90,0.00,,---,0.02,VWS V14.01,2013-03-06 15:34:00,
2013-03-06 10:38:00,36.7,34.0,28.20,ESE,117,4.0,4.0,90,0.00,,---,0.02,VWS V14.01,2013-03-06 15:38:00,
2013-03-06 10:39:00,36.7,34.0,28.20,NE,53,4.0,4.0,90,0.00,,---,0.02,VWS V14.01,2013-03-06 15:39:00,
2013-03-06 10:43:00,36.7,33.8,28.20,NNE,28,4.0,4.0,89,0.00,,---,0.02,VWS V14.01,2013-03-06 15:43:00,
2013-03-06 10:44:00,36.7,33.8,28.20,NE,52,4.0,4.0,89,0.00,,---,0.02,VWS V14.01,2013-03-06 15:44:00,
2013-03-06 10:46:00,36.7,33.8,28.20,NE,51,4.0,4.0,89,0.00,,---,0.02,VWS V14.01,2013-03-06 15:46:00,
2013-03-06 10:48:00,36.9,34.0,28.20,ENE,78,4.0,4.0,89,0.00,,---,0.02,VWS V14.01,2013-03-06 15:48:00,
2013-03-06 10:49:00,36.9,34.0,28.19,ENE,74,4.0,4.0,89,0.00,,---,0.02,VWS V14.01,2013-03-06 15:49:00,
2013-03-06 10:51:00,36.9,34.0,28.20,ENE,72,2.9,4.0,89,0.00,,---,0.02,VWS V14.01,2013-03-06 15:51:00,
2013-03-06 10:53:00,36.9,34.0,28.20,ENE,61,2.9,4.0,89,0.00,,---,0.02,VWS V14.01,2013-03-06 15:53:00,
2013-03-06 10:54:00,36.9,34.0,28.20,ENE,61,2.9,4.0,89,0.00,,---,0.02,VWS V14.01,2013-03-06 15:54:00,
2013-03-06 10:56:00,36.9,34.0,28.20,ENE,60,2.9,4.0,89,0.00,,---,0.02,VWS V14.01,2013-03-06 15:56:00,
2013-03-06 10:58:00,36.9,34.0,28.21,NE,45,2.9,4.0,89,0.00,,---,0.02,VWS V14.01,2013-03-06 15:58:00,
2013-03-06 10:59:00,36.9,34.0,28.20,ENE,63,2.9,4.0,89,0.00,,---,0.02,VWS V14.01,2013-03-06 15:59:00,
2013-03-06 11:01:00,36.9,34.0,28.20,ENE,76,2.9,2.9,89,0.00,,---,0.02,VWS V14.01,2013-03-06 16:01:00,
2013-03-06 11:03:00,36.9,33.7,28.21,NE,46,2.9,2.9,88,0.00,,---,0.02,VWS V14.01,2013-03-06 16:03:00,
2013-03-06 11:04:00,36.9,33.7,28.21,ENE,67,2.9,2.9,88,0.00,,---,0.02,VWS V14.01,2013-03-06 16:04:00,
2013-03-06 11:05:00,36.9,33.7,28.21,ENE,67,2.9,2.9,88,0.00,,---,0.02,VWS V14.01,2013-03-06 16:05:00,
2013-03-06 11:06:00,36.9,33.7,28.21,NE,40,2.9,2.9,88,0.00,,---,0.02,VWS V14.01,2013-03-06 16:06:00,
2013-03-06 11:08:00,36.9,33.7,28.21,ENE,59,2.9,2.9,88,0.00,,---,0.02,VWS V14.01,2013-03-06 16:08:00,
2013-03-06 11:09:00,36.9,33.7,28.21,NE,41,2.9,2.9,88,0.00,,---,0.02,VWS V14.01,2013-03-06 16:09:00,
2013-03-06 11:10:00,36.9,33.7,28.21,NE,41,2.9,2.9,88,0.00,,---,0.02,VWS V14.01,2013-03-06 16:10:00,
2013-03-06 11:11:00,36.9,33.7,28.21,East,80,2.9,2.9,88,0.00,,---,0.02,VWS V14.01,2013-03-06 16:11:00,
2013-03-06 11:13:00,36.9,33.7,28.21,NNW,329,2.9,2.9,88,0.00,,---,0.02,VWS V14.01,2013-03-06 16:13:00,
2013-03-06 11:14:00,36.9,33.7,28.21,NE,46,2.9,2.9,88,0.00,,---,0.02,VWS V14.01,2013-03-06 16:14:00,
2013-03-06 11:15:00,36.9,33.7,28.21,NE,46,2.9,2.9,88,0.00,,---,0.02,VWS V14.01,2013-03-06 16:15:00,
2013-03-06 11:17:00,36.9,33.7,28.21,ENE,63,2.9,2.9,88,0.00,,---,0.02,VWS V14.01,2013-03-06 16:17:00,
2013-03-06 11:19:00,36.9,33.7,28.21,ENE,67,2.9,2.9,88,0.00,,---,0.02,VWS V14.01,2013-03-06 16:19:00,
2013-03-06 11:20:00,36.9,33.7,28.21,NE,52,2.9,2.9,88,0.00,,---,0.02,VWS V14.01,2013-03-06 16:20:00,
2013-03-06 11:22:00,36.9,33.7,28.21,NE,51,4.0,4.0,88,0.00,,---,0.02,VWS V14.01,2013-03-06 16:22:00,
2013-03-06 11:24:00,36.9,33.7,28.21,NNE,32,4.0,4.0,88,0.00,,---,0.02,VWS V14.01,2013-03-06 16:24:00,
2013-03-06 11:25:00,36.9,33.7,28.21,ENE,57,2.9,4.0,88,0.00,,---,0.02,VWS V14.01,2013-03-06 16:25:00,
2013-03-06 11:27:00,36.9,33.7,28.21,ENE,77,2.9,4.0,88,0.00,,---,0.02,VWS V14.01,2013-03-06 16:27:00,
2013-03-06 11:29:00,36.9,33.7,28.21,ENE,60,2.9,4.0,88,0.00,,---,0.02,VWS V14.01,2013-03-06 16:29:00,
2013-03-06 11:31:00,36.9,33.7,28.21,North,0,2.9,2.9,88,0.00,,---,0.02,VWS V14.01,2013-03-06 16:31:00,
2013-03-06 11:32:00,36.9,33.7,28.21,NE,47,2.9,2.9,88,0.00,,---,0.02,VWS V14.01,2013-03-06 16:32:00,
2013-03-06 11:34:00,36.7,33.8,28.20,NE,51,2.9,2.9,89,0.00,,---,0.02,VWS V14.01,2013-03-06 16:34:00,
2013-03-06 11:36:00,36.7,33.8,28.20,ENE,76,2.9,2.9,89,0.00,,---,0.02,VWS V14.01,2013-03-06 16:36:00,
2013-03-06 11:37:00,36.7,33.8,28.21,ENE,74,2.9,2.9,89,0.00,,---,0.02,VWS V14.01,2013-03-06 16:37:00,
2013-03-06 11:39:00,36.7,33.8,28.21,NE,53,2.9,2.9,89,0.00,,---,0.02,VWS V14.01,2013-03-06 16:39:00,
2013-03-06 11:41:00,36.7,33.8,28.21,ENE,61,2.9,2.9,89,0.00,,---,0.02,VWS V14.01,2013-03-06 16:41:00,
2013-03-06 11:43:00,36.5,33.6,28.21,ENE,59,2.9,2.9,89,0.00,,---,0.02,VWS V14.01,2013-03-06 16:43:00,
2013-03-06 11:45:00,36.3,33.4,28.21,NE,44,2.9,2.9,89,0.00,,---,0.02,VWS V14.01,2013-03-06 16:45:00,
2013-03-06 11:46:00,36.3,33.4,28.21,ENE,73,2.9,2.9,89,0.00,,---,0.02,VWS V14.01,2013-03-06 16:46:00,
2013-03-06 11:47:00,36.3,33.4,28.21,ENE,67,2.9,2.9,89,0.00,,---,0.02,VWS V14.01,2013-03-06 16:47:00,
2013-03-06 11:50:00,36.3,33.4,28.21,ENE,76,2.0,2.9,89,0.00,,---,0.02,VWS V14.01,2013-03-06 16:50:00,
2013-03-06 11:51:00,36.1,33.2,28.21,ENE,66,2.0,2.9,89,0.00,,---,0.02,VWS V14.01,2013-03-06 16:51:00,
2013-03-06 11:53:00,36.1,33.2,28.21,NE,35,2.0,2.9,89,0.00,,---,0.02,VWS V14.01,2013-03-06 16:53:00,
2013-03-06 11:55:00,36.1,33.2,28.21,SE,145,2.0,2.9,89,0.00,,---,0.02,VWS V14.01,2013-03-06 16:55:00,
2013-03-06 11:56:00,36.1,33.5,28.21,NE,55,2.0,2.9,90,0.00,,---,0.02,VWS V14.01,2013-03-06 16:56:00,
2013-03-06 11:59:00,36.1,33.5,28.21,ENE,67,2.0,2.0,90,0.00,,---,0.02,VWS V14.01,2013-03-06 16:59:00,
2013-03-06 12:00:00,36.1,33.5,28.21,ENE,59,2.0,2.0,90,0.00,,---,0.02,VWS V14.01,2013-03-06 17:00:00,
2013-03-06 12:01:00,36.0,33.4,28.21,NE,55,2.0,2.0,90,0.00,,---,0.02,VWS V14.01,2013-03-06 17:01:00,
2013-03-06 12:04:00,36.0,33.4,28.20,NE,41,2.0,2.0,90,0.00,,---,0.02,VWS V14.01,2013-03-06 17:04:00,
2013-03-06 12:05:00,36.0,33.4,28.21,ENE,61,2.9,2.9,90,0.00,,---,0.02,VWS V14.01,2013-03-06 17:05:00,
2013-03-06 12:07:00,36.0,33.4,28.20,North,349,2.0,2.9,90,0.00,,---,0.02,VWS V14.01,2013-03-06 17:07:00,
2013-03-06 12:09:00,36.1,33.5,28.21,ENE,61,2.0,2.9,90,0.00,,---,0.02,VWS V14.01,2013-03-06 17:09:00,
2013-03-06 12:10:00,36.1,33.5,28.21,ENE,63,2.0,2.9,90,0.00,,---,0.02,VWS V14.01,2013-03-06 17:10:00,
2013-03-06 12:13:00,36.1,33.7,28.21,ENE,68,2.0,2.0,91,0.00,,---,0.02,VWS V14.01,2013-03-06 17:13:00,
2013-03-06 12:14:00,36.1,33.7,28.21,ENE,68,2.0,2.0,91,0.00,,---,0.02,VWS V14.01,2013-03-06 17:14:00,
2013-03-06 12:15:00,36.1,33.7,28.21,ENE,76,2.0,2.0,91,0.00,,---,0.02,VWS V14.01,2013-03-06 17:15:00,
2013-03-06 12:18:00,36.1,33.7,28.21,ENE,60,2.0,2.0,91,0.00,,---,0.02,VWS V14.01,2013-03-06 17:18:00,
2013-03-06 12:19:00,36.1,33.7,28.21,ENE,60,2.0,2.0,91,0.00,,---,0.02,VWS V14.01,2013-03-06 17:19:00,
2013-03-06 12:20:00,36.1,33.7,28.22,ENE,72,2.0,2.0,91,0.00,,---,0.02,VWS V14.01,2013-03-06 17:20:00,
2013-03-06 12:23:00,36.1,33.7,28.22,NNE,28,2.0,2.0,91,0.00,,---,0.02,VWS V14.01,2013-03-06 17:23:00,
2013-03-06 12:24:00,36.1,33.7,28.22,NNE,28,2.0,2.0,91,0.00,,---,0.02,VWS V14.01,2013-03-06 17:24:00,
2013-03-06 12:27:00,36.1,33.7,28.22,NE,49,2.0,2.0,91,0.00,,---,0.02,VWS V14.01,2013-03-06 17:27:00,
2013-03-06 12:28:00,36.1,33.7,28.22,NE,53,2.0,2.0,91,0.00,,---,0.02,VWS V14.01,2013-03-06 17:28:00,
2013-03-06 12:29:00,36.1,33.7,28.22,NE,53,2.0,2.0,91,0.00,,---,0.02,VWS V14.01,2013-03-06 17:29:00,
2013-03-06 12:32:00,36.1,33.7,28.22,NNE,29,2.0,2.0,91,0.00,,---,0.02,VWS V14.01,2013-03-06 17:32:00,
2013-03-06 12:34:00,36.1,33.7,28.21,NNE,22,2.0,2.0,91,0.00,,---,0.02,VWS V14.01,2013-03-06 17:34:00,
2013-03-06 12:37:00,36.0,33.6,28.21,NNE,18,2.9,2.9,91,0.00,,---,0.02,VWS V14.01,2013-03-06 17:37:00,
2013-03-06 12:39:00,36.0,33.6,28.21,NE,53,2.9,2.9,91,0.00,,---,0.02,VWS V14.01,2013-03-06 17:39:00,
2013-03-06 12:41:00,36.0,33.6,28.21,NE,44,2.9,2.9,91,0.00,,---,0.02,VWS V14.01,2013-03-06 17:41:00,
2013-03-06 12:42:00,36.0,33.6,28.21,East,85,2.9,2.9,91,0.00,,---,0.02,VWS V14.01,2013-03-06 17:42:00,
2013-03-06 12:44:00,36.0,33.6,28.21,NE,55,2.9,2.9,91,0.00,,---,0.02,VWS V14.01,2013-03-06 17:44:00,
2013-03-06 12:46:00,36.0,33.6,28.21,ENE,68,2.9,2.9,91,0.00,,---,0.02,VWS V14.01,2013-03-06 17:46:00,
2013-03-06 12:47:00,36.0,33.6,28.21,East,94,2.0,2.9,91,0.00,,---,0.02,VWS V14.01,2013-03-06 17:47:00,
2013-03-06 12:49:00,36.0,33.6,28.21,ENE,57,2.0,2.9,91,0.00,,---,0.02,VWS V14.01,2013-03-06 17:49:00,
2013-03-06 12:52:00,36.0,33.6,28.21,ENE,70,2.0,2.9,91,0.00,,---,0.02,VWS V14.01,2013-03-06 17:52:00,
2013-03-06 12:55:00,36.0,33.6,28.21,ENE,65,2.0,2.0,91,0.00,,---,0.02,VWS V14.01,2013-03-06 17:55:00,
2013-03-06 12:57:00,36.0,33.6,28.21,ENE,65,2.0,2.0,91,0.00,,---,0.02,VWS V14.01,2013-03-06 17:57:00,
2013-03-06 13:00:00,36.1,33.7,28.21,ENE,63,2.0,2.0,91,0.00,,---,0.02,VWS V14.01,2013-03-06 18:00:00,
2013-03-06 13:02:00,36.1,34.0,28.21,NE,49,2.0,2.0,92,0.00,,---,0.02,VWS V14.01,2013-03-06 18:02:00,
2013-03-06 13:05:00,36.1,34.0,28.21,NE,48,2.0,2.0,92,0.00,,---,0.02,VWS V14.01,2013-03-06 18:05:00,
2013-03-06 13:09:00,36.1,34.0,28.21,ENE,61,2.0,2.0,92,0.00,,---,0.02,VWS V14.01,2013-03-06 18:09:00,
2013-03-06 13:10:00,36.1,34.0,28.21,ENE,71,2.0,2.0,92,0.00,,---,0.02,VWS V14.01,2013-03-06 18:10:00,
2013-03-06 13:11:00,36.1,34.0,28.22,ENE,59,2.0,2.0,92,0.00,,---,0.02,VWS V14.01,2013-03-06 18:11:00,
2013-03-06 13:15:00,36.1,34.0,28.21,NNE,24,2.9,2.9,92,0.00,,---,0.02,VWS V14.01,2013-03-06 18:15:00,
2013-03-06 13:16:00,36.1,34.0,28.21,NNE,27,2.9,2.9,92,0.00,,---,0.02,VWS V14.01,2013-03-06 18:16:00,
2013-03-06 13:20:00,36.1,34.0,28.20,NE,51,2.9,2.9,92,0.00,,---,0.02,VWS V14.01,2013-03-06 18:20:00,
2013-03-06 13:23:00,36.1,34.0,28.20,NE,49,2.9,2.9,92,0.00,,---,0.02,VWS V14.01,2013-03-06 18:23:00,
2013-03-06 13:25:00,36.1,34.0,28.21,NE,50,2.0,2.9,92,0.00,,---,0.02,VWS V14.01,2013-03-06 18:25:00,
2013-03-06 13:28:00,36.1,34.0,28.20,NE,53,2.0,2.9,92,0.00,,---,0.02,VWS V14.01,2013-03-06 18:28:00,
2013-03-06 13:30:00,36.1,34.0,28.20,ENE,57,2.0,2.0,92,0.00,,---,0.02,VWS V14.01,2013-03-06 18:30:00,
2013-03-06 13:33:00,36.1,34.0,28.20,NNE,28,2.0,2.0,92,0.00,,---,0.02,VWS V14.01,2013-03-06 18:33:00,
2013-03-06 13:35:00,36.3,34.2,28.21,ENE,65,2.0,2.0,92,0.00,,---,0.02,VWS V14.01,2013-03-06 18:35:00,
2013-03-06 13:37:00,36.3,34.2,28.20,ENE,60,2.0,2.0,92,0.00,,---,0.02,VWS V14.01,2013-03-06 18:37:00,
2013-03-06 13:38:00,36.3,34.2,28.21,North,5,2.9,2.9,92,0.00,,---,0.02,VWS V14.01,2013-03-06 18:38:00,
2013-03-06 13:40:00,36.3,34.2,28.21,ENE,70,2.9,2.9,92,0.00,,---,0.02,VWS V14.01,2013-03-06 18:40:00,
2013-03-06 13:42:00,36.3,34.2,28.21,ENE,65,2.0,2.9,92,0.00,,---,0.02,VWS V14.01,2013-03-06 18:42:00,
2013-03-06 13:43:00,36.3,34.2,28.21,ENE,74,2.9,2.9,92,0.00,,---,0.02,VWS V14.01,2013-03-06 18:43:00,
2013-03-06 13:45:00,36.3,34.2,28.20,ENE,63,2.9,2.9,92,0.00,,---,0.02,VWS V14.01,2013-03-06 18:45:00,
2013-03-06 13:47:00,36.3,34.2,28.21,NNE,28,2.9,2.9,92,0.00,,---,0.02,VWS V14.01,2013-03-06 18:47:00,
2013-03-06 13:48:00,36.5,34.4,28.21,NE,46,2.9,2.9,92,0.00,,---,0.02,VWS V14.01,2013-03-06 18:48:00,
2013-03-06 13:51:00,36.5,34.4,28.21,NE,55,2.9,2.9,92,0.00,,---,0.02,VWS V14.01,2013-03-06 18:51:00,
2013-03-06 13:52:00,36.5,34.4,28.21,NE,46,2.0,2.9,92,0.00,,---,0.02,VWS V14.01,2013-03-06 18:52:00,
2013-03-06 13:54:00,36.5,34.4,28.21,NE,46,2.0,2.9,92,0.00,,---,0.02,VWS V14.01,2013-03-06 18:54:00,
2013-03-06 13:56:00,36.5,34.4,28.21,NE,48,2.0,2.9,92,0.00,,---,0.02,VWS V14.01,2013-03-06 18:56:00,
2013-03-06 13:57:00,36.5,34.4,28.21,ENE,67,2.0,2.9,92,0.00,,---,0.02,VWS V14.01,2013-03-06 18:57:00,
2013-03-06 13:59:00,36.5,34.4,28.21,NE,37,2.0,2.9,92,0.00,,---,0.02,VWS V14.01,2013-03-06 18:59:00,
2013-03-06 14:01:00,36.5,34.4,28.21,NNE,19,2.0,2.0,92,0.00,,---,0.02,VWS V14.01,2013-03-06 19:01:00,
2013-03-06 14:03:00,36.5,34.4,28.21,NE,46,2.0,2.0,92,0.00,,---,0.02,VWS V14.01,2013-03-06 19:03:00,
2013-03-06 14:04:00,36.5,34.4,28.21,NNE,18,2.0,2.0,92,0.00,,---,0.02,VWS V14.01,2013-03-06 19:04:00,
2013-03-06 14:06:00,36.5,34.4,28.21,NE,36,2.0,2.0,92,0.00,,---,0.02,VWS V14.01,2013-03-06 19:06:00,
2013-03-06 14:08:00,36.5,34.4,28.22,NE,42,2.0,2.0,92,0.00,,---,0.02,VWS V14.01,2013-03-06 19:08:00,
2013-03-06 14:09:00,36.3,34.2,28.22,NE,42,2.0,2.0,92,0.00,,---,0.02,VWS V14.01,2013-03-06 19:09:00,
2013-03-06 14:11:00,36.3,34.2,28.22,ENE,59,2.0,2.0,92,0.00,,---,0.02,VWS V14.01,2013-03-06 19:11:00,
2013-03-06 14:13:00,36.3,34.2,28.22,NE,38,2.0,2.0,92,0.00,,---,0.02,VWS V14.01,2013-03-06 19:13:00,
2013-03-06 14:15:00,36.3,34.2,28.22,ESE,104,2.0,2.0,92,0.00,,---,0.02,VWS V14.01,2013-03-06 19:15:00,
2013-03-06 14:16:00,36.3,34.2,28.22,ENE,73,2.0,2.0,92,0.00,,---,0.02,VWS V14.01,2013-03-06 19:16:00,
2013-03-06 14:18:00,36.3,34.2,28.22,NE,43,2.0,2.0,92,0.00,,---,0.02,VWS V14.01,2013-03-06 19:18:00,
2013-03-06 14:20:00,36.3,34.2,28.22,NNE,33,2.0,2.0,92,0.00,,---,0.02,VWS V14.01,2013-03-06 19:20:00,
2013-03-06 14:21:00,36.3,34.2,28.22,NNE,33,2.0,2.0,92,0.00,,---,0.02,VWS V14.01,2013-03-06 19:21:00,
2013-03-06 14:23:00,36.3,34.2,28.22,NNE,26,2.0,2.0,92,0.00,,---,0.02,VWS V14.01,2013-03-06 19:23:00,
2013-03-06 14:26:00,36.3,34.2,28.22,NE,40,2.0,2.0,92,0.00,,---,0.02,VWS V14.01,2013-03-06 19:26:00,
2013-03-06 14:27:00,36.3,34.2,28.22,NE,40,2.0,2.0,92,0.00,,---,0.02,VWS V14.01,2013-03-06 19:27:00,
2013-03-06 14:29:00,36.3,34.2,28.23,NE,40,2.0,2.0,92,0.00,,---,0.02,VWS V14.01,2013-03-06 19:29:00,
2013-03-06 14:31:00,36.5,34.4,28.22,East,87,2.0,2.0,92,0.00,,---,0.02,VWS V14.01,2013-03-06 19:31:00,
2013-03-06 14:32:00,36.3,34.2,28.23,NNE,22,2.0,2.0,92,0.00,,---,0.02,VWS V14.01,2013-03-06 19:32:00,
2013-03-06 14:34:00,36.3,34.2,28.23,NNE,33,2.0,2.0,92,0.00,,---,0.02,VWS V14.01,2013-03-06 19:34:00,
2013-03-06 14:36:00,36.3,34.2,28.23,ENE,67,2.0,2.0,92,0.00,,---,0.02,VWS V14.01,2013-03-06 19:36:00,
2013-03-06 14:37:00,36.3,34.2,28.23,ENE,57,2.0,2.0,92,0.00,,---,0.02,VWS V14.01,2013-03-06 19:37:00,
2013-03-06 14:39:00,36.3,34.2,28.23,ENE,57,2.0,2.0,92,0.00,,---,0.02,VWS V14.01,2013-03-06 19:39:00,
2013-03-06 14:41:00,36.3,34.2,28.23,ENE,63,2.0,2.0,92,0.00,,---,0.02,VWS V14.01,2013-03-06 19:41:00,
2013-03-06 14:43:00,36.3,34.2,28.23,ENE,65,2.0,2.0,92,0.00,,---,0.02,VWS V14.01,2013-03-06 19:43:00,
2013-03-06 14:44:00,36.3,34.2,28.23,East,98,2.0,2.0,92,0.00,,---,0.02,VWS V14.01,2013-03-06 19:44:00,
2013-03-06 14:46:00,36.3,34.2,28.23,ENE,67,2.0,2.0,92,0.00,,---,0.02,VWS V14.01,2013-03-06 19:46:00,
2013-03-06 14:48:00,36.3,34.2,28.23,NNE,28,2.0,2.0,92,0.00,,---,0.02,VWS V14.01,2013-03-06 19:48:00,
2013-03-06 14:49:00,36.3,34.2,28.23,North,10,2.0,2.0,92,0.00,,---,0.02,VWS V14.01,2013-03-06 19:49:00,
2013-03-06 14:51:00,36.3,34.2,28.23,NE,45,2.0,2.0,92,0.00,,---,0.02,VWS V14.01,2013-03-06 19:51:00,
2013-03-06 14:52:00,36.3,34.2,28.23,NE,41,2.0,2.0,92,0.00,,---,0.02,VWS V14.01,2013-03-06 19:52:00,
2013-03-06 14:53:00,36.5,34.4,28.23,NE,35,2.0,2.0,92,0.00,,---,0.02,VWS V14.01,2013-03-06 19:53:00,
2013-03-06 14:54:00,36.3,34.2,28.23,NE,35,2.0,2.0,92,0.00,,---,0.02,VWS V14.01,2013-03-06 19:54:00,
2013-03-06 14:57:00,36.5,34.4,28.23,NNE,21,2.0,2.0,92,0.00,,---,0.02,VWS V14.01,2013-03-06 19:57:00,
2013-03-06 14:58:00,36.5,34.4,28.23,NE,53,2.0,2.0,92,0.00,,---,0.02,VWS V14.01,2013-03-06 19:58:00,
2013-03-06 14:59:00,36.5,34.7,28.23,ENE,61,2.0,2.0,93,0.00,,---,0.02,VWS V14.01,2013-03-06 19:59:00,
2013-03-06 15:02:00,36.7,34.9,28.24,North,9,2.0,2.0,93,0.00,,---,0.02,VWS V14.01,2013-03-06 20:02:00,
2013-03-06 15:03:00,36.7,34.9,28.24,NE,41,2.0,2.0,93,0.00,,---,0.02,VWS V14.01,2013-03-06 20:03:00,
2013-03-06 15:04:00,36.7,34.9,28.24,ENE,77,2.0,2.0,93,0.00,,---,0.02,VWS V14.01,2013-03-06 20:04:00,
2013-03-06 15:07:00,36.7,34.9,28.24,NNE,32,2.0,2.0,93,0.00,,---,0.02,VWS V14.01,2013-03-06 20:07:00,
2013-03-06 15:08:00,36.7,34.9,28.24,NE,52,2.0,2.0,93,0.00,,---,0.02,VWS V14.01,2013-03-06 20:08:00,
2013-03-06 15:12:00,36.7,34.9,28.24,ENE,65,2.0,2.0,93,0.00,,---,0.02,VWS V14.01,2013-03-06 20:12:00,
2013-03-06 15:13:00,36.7,34.6,28.25,NNW,348,2.0,2.0,92,0.00,,---,0.02,VWS V14.01,2013-03-06 20:13:00,
2013-03-06 15:17:00,36.7,34.6,28.25,ENE,65,2.9,2.9,92,0.00,,---,0.02,VWS V14.01,2013-03-06 20:17:00,
2013-03-06 15:18:00,36.7,34.6,28.25,ENE,63,2.0,2.9,92,0.00,,---,0.02,VWS V14.01,2013-03-06 20:18:00,
2013-03-06 15:22:00,36.7,34.6,28.25,ENE,67,2.0,2.9,92,0.00,,---,0.02,VWS V14.01,2013-03-06 20:22:00,
2013-03-06 15:23:00,36.7,34.6,28.25,North,355,2.0,2.9,92,0.00,,---,0.02,VWS V14.01,2013-03-06 20:23:00,
2013-03-06 15:26:00,36.7,34.6,28.25,NE,53,2.0,2.0,92,0.00,,---,0.02,VWS V14.01,2013-03-06 20:26:00,
2013-03-06 15:27:00,36.7,34.6,28.25,East,83,2.0,2.0,92,0.00,,---,0.02,VWS V14.01,2013-03-06 20:27:00,
2013-03-06 15:28:00,36.7,34.6,28.25,ENE,66,2.0,2.0,92,0.00,,---,0.02,VWS V14.01,2013-03-06 20:28:00,
2013-03-06 15:31:00,36.7,34.6,28.25,NNW,341,2.0,2.0,92,0.00,,---,0.02,VWS V14.01,2013-03-06 20:31:00,
2013-03-06 15:32:00,36.9,34.8,28.25,ENE,77,2.9,2.9,92,0.00,,---,0.02,VWS V14.01,2013-03-06 20:32:00,
2013-03-06 15:33:00,36.9,34.8,28.25,ENE,77,2.9,2.9,92,0.00,,---,0.02,VWS V14.01,2013-03-06 20:33:00,
2013-03-06 15:36:00,36.9,34.8,28.25,ENE,73,2.9,2.9,92,0.00,,---,0.02,VWS V14.01,2013-03-06 20:36:00,
2013-03-06 15:37:00,36.9,34.8,28.25,ENE,61,2.0,2.9,92,0.00,,---,0.02,VWS V14.01,2013-03-06 20:37:00,
2013-03-06 15:38:00,36.9,34.8,28.25,ENE,61,2.0,2.9,92,0.00,,---,0.02,VWS V14.01,2013-03-06 20:38:00,
2013-03-06 15:41:00,36.9,34.8,28.26,NE,45,2.0,2.9,92,0.00,,---,0.02,VWS V14.01,2013-03-06 20:41:00,
2013-03-06 15:42:00,36.9,34.8,28.26,NE,45,2.0,2.9,92,0.00,,---,0.02,VWS V14.01,2013-03-06 20:42:00,
2013-03-06 15:43:00,37.0,34.9,28.26,ENE,71,2.0,2.9,92,0.00,,---,0.02,VWS V14.01,2013-03-06 20:43:00,
2013-03-06 15:48:00,37.0,34.9,29.06,NNE,28,2.0,8.0,92,0.00,,,0.02,meteohub,2013-03-06 20:48:00,
2013-03-06 15:53:00,37.0,34.9,28.27,ENE,65,0.9,0.9,92,0.00,,---,0.02,VWS V14.01,2013-03-06 20:53:00,
2013-03-06 15:54:00,37.0,34.9,28.27,ENE,65,0.9,0.9,92,0.00,,---,0.02,VWS V14.01,2013-03-06 20:54:00,
2013-03-06 15:58:00,37.2,35.1,28.27,SSE,163,0.9,0.9,92,0.00,,---,0.02,VWS V14.01,2013-03-06 20:58:00,
2013-03-06 15:59:00,37.2,35.1,28.27,SSE,163,0.9,0.9,92,0.00,,---,0.02,VWS V14.01,2013-03-06 20:59:00,
2013-03-06 16:03:00,37.2,35.1,28.27,ENE,69,2.0,2.0,92,0.00,,---,0.02,VWS V14.01,2013-03-06 21:03:00,
2013-03-06 16:04:00,37.2,35.1,28.27,ENE,69,2.0,2.0,92,0.00,,---,0.02,VWS V14.01,2013-03-06 21:04:00,
2013-03-06 16:08:00,37.2,35.1,28.27,NE,51,2.0,2.0,92,0.00,,---,0.02,VWS V14.01,2013-03-06 21:08:00,
2013-03-06 16:09:00,37.2,35.1,28.27,NE,51,2.0,2.0,92,0.00,,---,0.02,VWS V14.01,2013-03-06 21:09:00,
2013-03-06 16:13:00,37.2,35.1,28.28,East,80,2.0,2.0,92,0.00,,---,0.02,VWS V14.01,2013-03-06 21:13:00,
2013-03-06 16:14:00,37.2,35.1,28.28,East,80,2.0,2.0,92,0.00,,---,0.02,VWS V14.01,2013-03-06 21:14:00,
2013-03-06 16:18:00,37.2,35.1,28.28,WNW,303,2.0,2.0,92,0.00,,---,0.02,VWS V14.01,2013-03-06 21:18:00,
2013-03-06 16:19:00,37.2,35.1,28.28,WNW,303,2.0,2.0,92,0.00,,---,0.02,VWS V14.01,2013-03-06 21:19:00,
2013-03-06 16:23:00,37.0,34.9,28.28,ENE,65,2.0,2.9,92,0.00,,---,0.02,VWS V14.01,2013-03-06 21:23:00,
2013-03-06 16:24:00,37.0,34.9,28.28,ENE,65,2.0,2.9,92,0.00,,---,0.02,VWS V14.01,2013-03-06 21:24:00,
2013-03-06 16:29:00,37.0,34.9,29.08,NE,36,3.0,10.0,92,0.00,,,0.02,meteohub,2013-03-06 21:29:00,
2013-03-06 16:31:00,37.0,34.9,28.29,ENE,62,2.9,2.9,92,0.00,,---,0.02,VWS V14.01,2013-03-06 21:31:00,
2013-03-06 16:36:00,37.0,34.9,28.29,ENE,68,2.0,2.9,92,0.00,,---,0.02,VWS V14.01,2013-03-06 21:36:00,
2013-03-06 16:41:00,36.9,34.8,28.30,ENE,58,2.0,2.9,92,0.00,,---,0.02,VWS V14.01,2013-03-06 21:41:00,
2013-03-06 16:46:00,36.9,34.8,28.30,ENE,58,2.0,2.0,92,0.00,,---,0.02,VWS V14.01,2013-03-06 21:46:00,
2013-03-06 16:48:00,36.9,34.7,29.10,NE,49,2.0,8.0,92,0.00,,,0.02,meteohub,2013-03-06 21:48:00,
2013-03-06 16:51:00,36.7,34.6,28.30,NE,44,2.0,2.0,92,0.00,,---,0.02,VWS V14.01,2013-03-06 21:51:00,
2013-03-06 16:56:00,36.7,34.6,28.31,East,86,0.9,2.0,92,0.00,,---,0.02,VWS V14.01,2013-03-06 21:56:00,
2013-03-06 16:58:00,36.7,34.6,28.31,NE,42,2.0,2.0,92,0.00,,---,0.02,VWS V14.01,2013-03-06 21:58:00,
2013-03-06 16:59:00,36.7,34.6,28.31,NE,42,2.0,2.0,92,0.00,,---,0.02,VWS V14.01,2013-03-06 21:59:00,
2013-03-06 17:01:00,36.5,34.4,28.31,North,5,2.0,2.0,92,0.00,,---,0.02,VWS V14.01,2013-03-06 22:01:00,
2013-03-06 17:04:00,36.3,34.2,28.31,WNW,290,2.0,2.0,92,0.00,,---,0.02,VWS V14.01,2013-03-06 22:04:00,
2013-03-06 17:06:00,36.3,34.2,28.31,NE,36,2.0,2.0,92,0.00,,---,0.02,VWS V14.01,2013-03-06 22:06:00,
2013-03-06 17:09:00,36.3,34.2,28.31,NE,36,0.9,2.0,92,0.00,,---,0.02,VWS V14.01,2013-03-06 22:09:00,
2013-03-06 17:13:00,36.3,34.2,28.31,ESE,117,0.9,0.9,92,0.00,,---,0.02,VWS V14.01,2013-03-06 22:13:00,
2013-03-06 17:14:00,36.3,34.2,28.31,ENE,72,0.9,0.9,92,0.00,,---,0.02,VWS V14.01,2013-03-06 22:14:00,
2013-03-06 17:18:00,36.3,34.2,28.31,NNE,30,2.0,2.0,92,0.00,,---,0.02,VWS V14.01,2013-03-06 22:18:00,
2013-03-06 17:19:00,36.3,34.2,28.31,East,87,2.0,2.0,92,0.00,,---,0.02,VWS V14.01,2013-03-06 22:19:00,
2013-03-06 17:23:00,36.3,34.2,28.31,NE,36,2.0,2.0,92,0.00,,---,0.02,VWS V14.01,2013-03-06 22:23:00,
2013-03-06 17:24:00,36.3,34.2,28.31,NE,55,2.0,2.0,92,0.00,,---,0.02,VWS V14.01,2013-03-06 22:24:00,
2013-03-06 17:28:00,36.3,34.2,28.32,ENE,76,2.0,2.0,92,0.00,,---,0.02,VWS V14.01,2013-03-06 22:28:00,
2013-03-06 17:29:00,36.3,34.2,28.32,NE,44,2.0,2.0,92,0.00,,---,0.02,VWS V14.01,2013-03-06 22:29:00,
2013-03-06 17:33:00,36.3,34.2,28.33,ENE,65,2.0,2.0,92,0.00,,---,0.02,VWS V14.01,2013-03-06 22:33:00,
2013-03-06 17:34:00,36.3,34.2,28.33,East,84,2.0,2.0,92,0.00,,---,0.02,VWS V14.01,2013-03-06 22:34:00,
2013-03-06 17:39:00,36.1,34.0,29.13,ENE,67,1.0,8.0,92,0.00,,,0.02,meteohub,2013-03-06 22:39:00,
2013-03-06 17:44:00,36.1,34.0,28.33,NE,43,2.0,2.9,92,0.00,,---,0.02,VWS V14.01,2013-03-06 22:44:00,
2013-03-06 17:49:00,36.1,33.7,28.33,NE,55,0.9,2.9,91,0.00,,---,0.02,VWS V14.01,2013-03-06 22:49:00,
2013-03-06 17:54:00,36.1,33.7,28.33,ENE,63,2.0,2.0,91,0.00,,---,0.02,VWS V14.01,2013-03-06 22:54:00,
2013-03-06 17:55:00,36.1,33.7,28.33,ENE,63,2.0,2.0,91,0.00,,---,0.02,VWS V14.01,2013-03-06 22:55:00,
2013-03-06 17:59:00,36.1,33.7,28.34,ENE,58,2.0,2.0,91,0.00,,---,0.02,VWS V14.01,2013-03-06 22:59:00,
2013-03-06 18:00:00,36.1,33.7,28.34,NNE,14,0.9,2.0,91,0.00,,---,0.02,VWS V14.01,2013-03-06 23:00:00,
2013-03-06 18:04:00,36.1,33.7,28.33,East,80,0.9,0.9,91,0.00,,---,0.02,VWS V14.01,2013-03-06 23:04:00,
2013-03-06 18:05:00,36.1,33.7,28.34,East,80,0.9,0.9,91,0.00,,---,0.02,VWS V14.01,2013-03-06 23:05:00,
2013-03-06 18:09:00,36.1,33.7,28.34,ENE,71,2.0,2.0,91,0.00,,---,0.02,VWS V14.01,2013-03-06 23:09:00,
2013-03-06 18:10:00,36.1,33.7,28.34,ENE,71,2.0,2.0,91,0.00,,---,0.02,VWS V14.01,2013-03-06 23:10:00,
2013-03-06 18:14:00,36.1,33.5,28.34,ENE,74,2.0,2.0,90,0.00,,---,0.02,VWS V14.01,2013-03-06 23:14:00,
2013-03-06 18:15:00,36.1,33.5,28.34,ENE,74,2.0,2.0,90,0.00,,---,0.02,VWS V14.01,2013-03-06 23:15:00,
2013-03-06 18:20:00,36.3,33.6,29.14,NE,55,2.0,7.0,90,0.00,,,0.02,meteohub,2013-03-06 23:20:00,
2013-03-06 18:21:00,36.3,33.7,28.34,NE,55,2.0,2.0,90,0.00,,---,0.02,VWS V14.01,2013-03-06 23:21:00,
2013-03-06 18:22:00,36.3,33.7,28.34,SE,143,2.0,2.0,90,0.00,,---,0.02,VWS V14.01,2013-03-06 23:22:00,
2013-03-06 18:26:00,36.1,33.2,28.35,NE,51,0.9,2.0,89,0.00,,---,0.02,VWS V14.01,2013-03-06 23:26:00,
2013-03-06 18:27:00,36.3,33.4,28.35,NE,51,2.0,2.0,89,0.00,,---,0.02,VWS V14.01,2013-03-06 23:27:00,
2013-03-06 18:31:00,36.1,33.2,28.35,ENE,65,2.0,2.0,89,0.00,,---,0.02,VWS V14.01,2013-03-06 23:31:00,
2013-03-06 18:32:00,36.1,33.2,28.35,ENE,65,2.0,2.0,89,0.00,,---,0.02,VWS V14.01,2013-03-06 23:32:00,
2013-03-06 18:36:00,36.3,32.8,28.35,NE,40,2.0,2.0,87,0.00,,---,0.02,VWS V14.01,2013-03-06 23:36:00,
2013-03-06 18:37:00,36.3,32.8,28.35,NE,40,2.0,2.0,87,0.00,,---,0.02,VWS V14.01,2013-03-06 23:37:00,
2013-03-06 18:42:00,36.3,32.8,28.35,ESE,117,2.0,2.0,87,0.00,,---,0.02,VWS V14.01,2013-03-06 23:42:00,
2013-03-06 18:47:00,36.5,32.7,28.35,South,173,2.0,2.0,86,0.00,,---,0.02,VWS V14.01,2013-03-06 23:47:00,
2013-03-06 18:52:00,36.5,32.4,28.36,NE,44,0.9,2.0,85,0.00,,---,0.02,VWS V14.01,2013-03-06 23:52:00,
2013-03-06 18:57:00,36.7,32.6,28.36,East,81,0.9,2.0,85,0.00,,---,0.02,VWS V14.01,2013-03-06 23:57:00,
2013-03-06 19:02:00,36.7,32.3,28.36,ENE,67,0.9,0.9,84,0.00,,---,0.02,VWS V14.01,2013-03-07 00:02:00,
2013-03-06 19:07:00,36.7,32.3,28.36,ENE,67,2.0,2.0,84,0.00,,---,0.02,VWS V14.01,2013-03-07 00:07:00,
2013-03-06 19:12:00,36.9,32.2,28.37,ENE,67,2.0,2.0,83,0.00,,---,0.02,VWS V14.01,2013-03-07 00:12:00,
2013-03-06 19:17:00,36.9,31.9,28.37,ENE,67,2.0,2.0,82,0.00,,---,0.02,VWS V14.01,2013-03-07 00:17:00,
2013-03-06 19:22:00,36.9,31.9,28.37,ENE,59,2.0,2.0,82,0.00,,---,0.02,VWS V14.01,2013-03-07 00:22:00,
2013-03-06 19:27:00,36.9,31.6,29.17,East,88,1.0,8.0,81,0.00,,,0.02,meteohub,2013-03-07 00:27:00,
2013-03-06 19:29:00,37.0,31.7,28.37,East,88,2.0,2.0,81,0.00,,---,0.02,VWS V14.01,2013-03-07 00:29:00,
2013-03-06 19:34:00,37.0,31.7,28.38,ENE,71,2.0,2.0,81,0.00,,---,0.02,VWS V14.01,2013-03-07 00:34:00,
2013-03-06 19:39:00,37.0,31.4,28.38,WSW,239,2.0,2.0,80,0.00,,---,0.02,VWS V14.01,2013-03-07 00:39:00,
2013-03-06 19:44:00,37.0,31.4,28.38,East,98,2.0,2.0,80,0.00,,---,0.02,VWS V14.01,2013-03-07 00:44:00,
2013-03-06 19:45:00,37.0,31.4,28.38,East,98,2.0,2.0,80,0.00,,---,0.02,VWS V14.01,2013-03-07 00:45:00,
2013-03-06 19:49:00,37.0,31.4,28.38,East,86,2.0,2.0,80,0.00,,---,0.02,VWS V14.01,2013-03-07 00:49:00,
2013-03-06 19:50:00,37.0,31.4,28.38,East,86,2.0,2.0,80,0.00,,---,0.02,VWS V14.01,2013-03-07 00:50:00,
2013-03-06 19:54:00,37.0,31.4,28.38,NE,44,2.0,2.0,80,0.00,,---,0.02,VWS V14.01,2013-03-07 00:54:00,
2013-03-06 19:55:00,37.0,31.4,28.38,NE,44,2.0,2.0,80,0.00,,---,0.02,VWS V14.01,2013-03-07 00:55:00,
2013-03-06 19:59:00,37.2,31.3,29.18,NE,55,2.0,13.0,79,0.00,,,0.02,meteohub,2013-03-07 00:59:00,
2013-03-06 20:00:00,37.2,31.3,28.38,ENE,74,2.0,2.0,79,0.00,,---,0.02,VWS V14.01,2013-03-07 01:00:00,
2013-03-06 20:05:00,37.2,31.3,28.38,ENE,67,2.0,2.0,79,0.00,,---,0.02,VWS V14.01,2013-03-07 01:05:00,
2013-03-06 20:06:00,37.2,31.3,28.38,ENE,67,0.9,2.0,79,0.00,,---,0.02,VWS V14.01,2013-03-07 01:06:00,
2013-03-06 20:10:00,37.2,31.3,28.38,East,94,2.0,2.0,79,0.00,,---,0.02,VWS V14.01,2013-03-07 01:10:00,
2013-03-06 20:11:00,37.2,31.3,28.38,East,94,2.0,2.0,79,0.00,,---,0.02,VWS V14.01,2013-03-07 01:11:00,
2013-03-06 20:15:00,37.2,31.3,28.38,East,84,2.0,2.0,79,0.00,,---,0.02,VWS V14.01,2013-03-07 01:15:00,
2013-03-06 20:16:00,37.2,31.3,28.38,East,84,2.0,2.0,79,0.00,,---,0.02,VWS V14.01,2013-03-07 01:16:00,
2013-03-06 20:20:00,37.2,31.3,28.38,East,82,0.9,2.0,79,0.00,,---,0.02,VWS V14.01,2013-03-07 01:20:00,
2013-03-06 20:21:00,37.2,31.3,28.38,East,82,0.9,2.0,79,0.00,,---,0.02,VWS V14.01,2013-03-07 01:21:00,
2013-03-06 20:26:00,37.2,31.3,28.38,East,79,2.0,2.0,79,0.00,,---,0.02,VWS V14.01,2013-03-07 01:26:00,
2013-03-06 20:28:00,37.2,31.3,28.38,East,79,0.9,0.9,79,0.00,,---,0.02,VWS V14.01,2013-03-07 01:28:00,
2013-03-06 20:30:00,37.2,31.3,28.38,East,82,2.0,2.0,79,0.00,,---,0.02,VWS V14.01,2013-03-07 01:30:00,
2013-03-06 20:31:00,37.2,31.3,28.38,East,82,2.0,2.0,79,0.00,,---,0.02,VWS V14.01,2013-03-07 01:31:00,
2013-03-06 20:33:00,37.2,31.3,28.38,East,82,0.9,2.0,79,0.00,,---,0.02,VWS V14.01,2013-03-07 01:33:00,
2013-03-06 20:35:00,37.2,31.3,28.38,East,82,0.9,2.0,79,0.00,,---,0.02,VWS V14.01,2013-03-07 01:35:00,
2013-03-06 20:36:00,37.2,31.3,28.38,East,82,0.9,2.0,79,0.00,,---,0.02,VWS V14.01,2013-03-07 01:36:00,
2013-03-06 20:38:00,37.2,31.3,28.38,East,82,0.9,2.0,79,0.00,,---,0.02,VWS V14.01,2013-03-07 01:38:00,
2013-03-06 20:41:00,37.2,31.3,29.18,East,85,2.0,7.0,79,0.00,,,0.02,meteohub,2013-03-07 01:41:00,
2013-03-06 20:42:00,37.2,31.3,28.39,East,85,2.0,2.0,79,0.00,,---,0.02,VWS V14.01,2013-03-07 01:42:00,
2013-03-06 20:43:00,37.2,31.3,28.38,SE,142,2.0,2.0,79,0.00,,---,0.02,VWS V14.01,2013-03-07 01:43:00,
2013-03-06 20:47:00,37.0,31.1,28.39,East,84,2.9,2.9,79,0.00,,---,0.02,VWS V14.01,2013-03-07 01:47:00,
2013-03-06 20:48:00,37.0,31.1,28.39,East,84,2.9,2.9,79,0.00,,---,0.02,VWS V14.01,2013-03-07 01:48:00,
2013-03-06 20:52:00,37.0,31.1,28.39,East,80,2.0,2.9,79,0.00,,---,0.02,VWS V14.01,2013-03-07 01:52:00,
2013-03-06 20:53:00,37.0,31.1,28.39,East,80,2.0,2.9,79,0.00,,---,0.02,VWS V14.01,2013-03-07 01:53:00,
2013-03-06 20:57:00,37.0,31.1,28.39,East,80,0.9,2.0,79,0.00,,---,0.02,VWS V14.01,2013-03-07 01:57:00,
2013-03-06 20:58:00,36.9,31.3,28.39,East,80,0.9,2.0,80,0.00,,---,0.02,VWS V14.01,2013-03-07 01:58:00,
2013-03-06 21:02:00,36.9,31.3,28.39,East,80,0.9,0.9,80,0.00,,---,0.02,VWS V14.01,2013-03-07 02:02:00,
2013-03-06 21:04:00,36.9,31.3,28.39,East,88,0.9,0.9,80,0.00,,---,0.02,VWS V14.01,2013-03-07 02:04:00,
2013-03-06 21:07:00,36.9,31.3,28.39,NE,44,0.9,0.9,80,0.00,,---,0.02,VWS V14.01,2013-03-07 02:07:00,
2013-03-06 21:10:00,36.7,31.1,28.39,NE,42,0.9,0.9,80,0.00,,---,0.02,VWS V14.01,2013-03-07 02:10:00,
2013-03-06 21:12:00,36.7,31.1,28.40,NE,34,0.9,2.0,80,0.00,,---,0.02,VWS V14.01,2013-03-07 02:12:00,
2013-03-06 21:15:00,36.7,31.1,28.40,ENE,72,2.0,2.0,80,0.00,,---,0.02,VWS V14.01,2013-03-07 02:15:00,
2013-03-06 21:17:00,36.7,31.1,28.40,ENE,72,0.9,2.0,80,0.00,,---,0.02,VWS V14.01,2013-03-07 02:17:00,
2013-03-06 21:18:00,36.7,31.1,28.40,ENE,72,0.9,2.0,80,0.00,,---,0.02,VWS V14.01,2013-03-07 02:18:00,
2013-03-06 21:20:00,36.7,31.1,28.40,NNE,27,0.9,2.0,80,0.00,,---,0.02,VWS V14.01,2013-03-07 02:20:00,
2013-03-06 21:23:00,36.7,31.1,29.19,ENE,67,0.0,7.0,80,0.00,,,0.02,meteohub,2013-03-07 02:23:00,
2013-03-06 21:24:00,36.5,30.9,28.39,ENE,67,0.9,0.9,80,0.00,,---,0.02,VWS V14.01,2013-03-07 02:24:00,
2013-03-06 21:25:00,36.5,30.9,28.40,ENE,67,0.9,0.9,80,0.00,,---,0.02,VWS V14.01,2013-03-07 02:25:00,
2013-03-06 21:29:00,36.5,30.6,28.40,ENE,67,2.0,2.0,79,0.00,,---,0.02,VWS V14.01,2013-03-07 02:29:00,
2013-03-06 21:30:00,36.5,30.6,28.39,ENE,67,2.0,2.0,79,0.00,,---,0.02,VWS V14.01,2013-03-07 02:30:00,
2013-03-06 21:34:00,36.5,30.9,28.40,ENE,67,0.9,2.0,80,0.00,,---,0.02,VWS V14.01,2013-03-07 02:34:00,
2013-03-06 21:35:00,36.5,30.9,28.40,ENE,67,0.9,2.0,80,0.00,,---,0.02,VWS V14.01,2013-03-07 02:35:00,
2013-03-06 21:39:00,36.3,30.4,28.40,NE,52,0.9,0.9,79,0.00,,---,0.02,VWS V14.01,2013-03-07 02:39:00,
2013-03-06 21:40:00,36.3,30.4,28.40,NE,52,0.9,0.9,79,0.00,,---,0.02,VWS V14.01,2013-03-07 02:40:00,
2013-03-06 21:44:00,36.3,30.4,28.40,ESE,105,0.9,0.9,79,0.00,,---,0.02,VWS V14.01,2013-03-07 02:44:00,
2013-03-06 21:45:00,36.3,30.4,28.40,ESE,105,0.9,0.9,79,0.00,,---,0.02,VWS V14.01,2013-03-07 02:45:00,
2013-03-06 21:49:00,36.3,30.1,28.40,NE,49,0.9,0.9,78,0.00,,---,0.02,VWS V14.01,2013-03-07 02:49:00,
2013-03-06 21:52:00,36.3,30.1,28.40,ENE,58,0.9,0.9,78,0.00,,---,0.02,VWS V14.01,2013-03-07 02:52:00,
2013-03-06 21:54:00,36.3,30.1,28.40,ENE,58,0.9,0.9,78,0.00,,---,0.02,VWS V14.01,2013-03-07 02:54:00,
2013-03-06 21:57:00,36.3,30.1,28.40,ENE,61,0.9,0.9,78,0.00,,---,0.02,VWS V14.01,2013-03-07 02:57:00,
2013-03-06 21:59:00,36.3,30.1,28.40,ENE,60,0.9,0.9,78,0.00,,---,0.02,VWS V14.01,2013-03-07 02:59:00,
2013-03-06 22:02:00,36.3,30.1,28.40,NNE,15,2.0,2.0,78,0.00,,---,0.02,VWS V14.01,2013-03-07 03:02:00,
2013-03-06 22:06:00,36.5,30.3,28.41,NNE,13,2.0,2.0,78,0.00,,---,0.02,VWS V14.01,2013-03-07 03:06:00,
2013-03-06 22:07:00,36.5,30.3,28.40,NE,52,2.0,2.0,78,0.00,,---,0.02,VWS V14.01,2013-03-07 03:07:00,
2013-03-06 22:11:00,36.5,30.0,28.40,ENE,66,2.0,2.0,77,0.00,,---,0.02,VWS V14.01,2013-03-07 03:11:00,
2013-03-06 22:12:00,36.7,30.2,28.40,NE,38,2.0,2.0,77,0.00,,---,0.02,VWS V14.01,2013-03-07 03:12:00,
2013-03-06 22:16:00,36.7,30.2,28.40,NE,53,2.0,2.9,77,0.00,,---,0.02,VWS V14.01,2013-03-07 03:16:00,
2013-03-06 22:17:00,36.7,30.2,28.41,NE,42,2.0,2.9,77,0.00,,---,0.02,VWS V14.01,2013-03-07 03:17:00,
2013-03-06 22:21:00,36.7,30.2,28.41,NE,36,2.0,2.0,77,0.00,,---,0.02,VWS V14.01,2013-03-07 03:21:00,
2013-03-06 22:22:00,36.7,30.2,28.40,East,83,2.0,2.0,77,0.00,,---,0.02,VWS V14.01,2013-03-07 03:22:00,
2013-03-06 22:26:00,36.7,29.9,28.41,NNE,26,2.0,2.0,76,0.00,,---,0.02,VWS V14.01,2013-03-07 03:26:00,
2013-03-06 22:27:00,36.7,29.9,28.41,NE,41,2.0,2.0,76,0.00,,---,0.02,VWS V14.01,2013-03-07 03:27:00,
2013-03-06 22:31:00,36.9,30.0,28.41,ENE,75,2.0,2.0,76,0.00,,---,0.02,VWS V14.01,2013-03-07 03:31:00,
2013-03-06 22:34:00,36.9,30.0,28.40,NE,42,2.0,2.0,76,0.00,,---,0.02,VWS V14.01,2013-03-07 03:34:00,
2013-03-06 22:36:00,36.9,30.0,28.40,NE,36,2.0,2.0,76,0.00,,---,0.02,VWS V14.01,2013-03-07 03:36:00,
2013-03-06 22:39:00,36.7,29.9,28.41,ENE,65,2.0,2.0,76,0.00,,---,0.02,VWS V14.01,2013-03-07 03:39:00,
2013-03-06 22:41:00,36.7,29.9,28.41,NE,36,2.0,2.0,76,0.00,,---,0.02,VWS V14.01,2013-03-07 03:41:00,
2013-03-06 22:44:00,36.7,29.9,28.41,ENE,67,2.0,2.0,76,0.00,,---,0.02,VWS V14.01,2013-03-07 03:44:00,
2013-03-06 22:47:00,36.7,29.9,28.41,East,80,2.9,2.9,76,0.00,,---,0.02,VWS V14.01,2013-03-07 03:47:00,
2013-03-06 22:49:00,36.7,29.9,28.40,NE,40,2.9,2.9,76,0.00,,---,0.02,VWS V14.01,2013-03-07 03:49:00,
2013-03-06 22:52:00,36.7,29.9,28.40,ENE,67,2.0,2.9,76,0.00,,---,0.02,VWS V14.01,2013-03-07 03:52:00,
2013-03-06 22:54:00,36.5,29.7,28.40,ENE,78,2.0,2.9,76,0.00,,---,0.02,VWS V14.01,2013-03-07 03:54:00,
2013-03-06 22:57:00,36.5,29.7,28.40,NE,41,2.0,2.9,76,0.00,,---,0.02,VWS V14.01,2013-03-07 03:57:00,
2013-03-06 22:59:00,36.3,29.5,28.40,ENE,62,2.0,2.9,76,0.00,,---,0.02,VWS V14.01,2013-03-07 03:59:00,
2013-03-06 23:01:00,36.3,29.5,28.41,NE,42,2.0,2.0,76,0.00,,---,0.02,VWS V14.01,2013-03-07 04:01:00,
2013-03-06 23:02:00,36.3,29.5,28.41,ENE,67,2.0,2.0,76,0.00,,---,0.02,VWS V14.01,2013-03-07 04:02:00,
2013-03-06 23:04:00,36.3,29.5,28.41,East,86,2.0,2.0,76,0.00,,---,0.02,VWS V14.01,2013-03-07 04:04:00,
2013-03-06 23:06:00,36.3,29.5,28.41,NE,38,2.0,2.0,76,0.00,,---,0.02,VWS V14.01,2013-03-07 04:06:00,
2013-03-06 23:07:00,36.3,29.5,28.40,East,84,2.0,2.0,76,0.00,,---,0.02,VWS V14.01,2013-03-07 04:07:00,
2013-03-06 23:09:00,36.1,29.3,28.41,SE,145,2.0,2.0,76,0.00,,---,0.02,VWS V14.01,2013-03-07 04:09:00,
2013-03-06 23:11:00,36.1,29.3,28.40,East,92,2.0,2.0,76,0.00,,---,0.02,VWS V14.01,2013-03-07 04:11:00,
2013-03-06 23:12:00,36.1,29.3,28.40,ENE,76,2.0,2.0,76,0.00,,---,0.02,VWS V14.01,2013-03-07 04:12:00,
2013-03-06 23:15:00,36.1,29.3,28.40,NNE,27,2.0,2.0,76,0.00,,---,0.02,VWS V14.01,2013-03-07 04:15:00,
2013-03-06 23:16:00,36.1,29.3,28.40,NNE,30,2.0,2.0,76,0.00,,---,0.02,VWS V14.01,2013-03-07 04:16:00,
2013-03-06 23:17:00,36.1,29.3,28.40,East,84,2.0,2.0,76,0.00,,---,0.02,VWS V14.01,2013-03-07 04:17:00,
2013-03-06 23:18:00,36.1,29.3,29.20,North,5,5.0,6.0,76,0.00,,,0.02,meteohub,2013-03-07 04:18:00,
2013-03-06 23:21:00,36.1,29.3,28.41,NE,49,2.0,2.0,76,0.00,,---,0.02,VWS V14.01,2013-03-07 04:21:00,
2013-03-06 23:22:00,36.1,29.3,28.41,NE,50,2.0,2.0,76,0.00,,---,0.02,VWS V14.01,2013-03-07 04:22:00,
2013-03-06 23:23:00,36.1,29.3,28.41,NE,50,2.0,2.0,76,0.00,,---,0.02,VWS V14.01,2013-03-07 04:23:00,
2013-03-06 23:26:00,36.1,29.3,28.41,NE,50,0.9,2.0,76,0.00,,---,0.02,VWS V14.01,2013-03-07 04:26:00,
2013-03-06 23:29:00,36.0,29.2,28.41,ENE,57,0.9,0.9,76,0.00,,---,0.02,VWS V14.01,2013-03-07 04:29:00,
2013-03-06 23:31:00,36.0,29.2,28.41,SE,127,0.9,0.9,76,0.00,,---,0.02,VWS V14.01,2013-03-07 04:31:00,
2013-03-06 23:34:00,36.0,29.2,28.41,ENE,63,0.9,0.9,76,0.00,,---,0.02,VWS V14.01,2013-03-07 04:34:00,
2013-03-06 23:36:00,36.0,29.2,28.40,East,88,2.0,2.0,76,0.00,,---,0.02,VWS V14.01,2013-03-07 04:36:00,
2013-03-06 23:39:00,36.0,29.2,28.40,NE,54,2.0,2.0,76,0.00,,---,0.02,VWS V14.01,2013-03-07 04:39:00,
2013-03-06 23:43:00,35.8,29.0,28.41,ENE,61,0.9,0.9,76,0.00,,---,0.02,VWS V14.01,2013-03-07 04:43:00,
2013-03-06 23:44:00,35.8,29.0,28.41,ENE,73,0.9,0.9,76,0.00,,---,0.02,VWS V14.01,2013-03-07 04:44:00,
2013-03-06 23:45:00,35.8,29.0,28.40,NE,40,0.9,0.9,76,0.00,,---,0.02,VWS V14.01,2013-03-07 04:45:00,
2013-03-06 23:48:00,35.8,29.0,28.41,SE,128,0.9,0.9,76,0.00,,---,0.02,VWS V14.01,2013-03-07 04:48:00,
2013-03-06 23:49:00,35.8,29.0,28.41,ENE,57,0.9,0.9,76,0.00,,---,0.02,VWS V14.01,2013-03-07 04:49:00,
2013-03-06 23:50:00,35.8,29.0,28.41,ENE,57,0.9,0.9,76,0.00,,---,0.02,VWS V14.01,2013-03-07 04:50:00,
2013-03-06 23:53:00,35.8,29.0,28.40,ENE,63,0.9,0.9,76,0.00,,---,0.02,VWS V14.01,2013-03-07 04:53:00,
2013-03-06 23:54:00,35.8,29.0,28.40,ENE,63,0.9,0.9,76,0.00,,---,0.02,VWS V14.01,2013-03-07 04:54:00,
2013-03-06 23:55:00,35.8,29.0,28.40,ENE,63,0.9,0.9,76,0.00,,---,0.02,VWS V14.01,2013-03-07 04:55:00,
2013-03-06 23:58:00,35.8,29.0,28.40,NE,49,0.9,0.9,76,0.00,,---,0.02,VWS V14.01,2013-03-07 04:58:00,
2013-03-06 23:59:00,35.8,29.0,28.40,NE,49,0.9,0.9,76,0.00,,---,0.02,VWS V14.01,2013-03-07 04:59:00,